| time (UTC) | temp F | wind direction | speed MPH | gust MPH | rain 1hr in | rain 24hr in | rain mn in | humidity % | barometer mb |
| 20260506164122 | 54 | 253 | 2.0 | 5.0 | 0.01 | 0.87 | 0.61 | 86 | 988.1 |
| 20260506164022 | 54 | 138 | 1.0 | 2.0 | 0.01 | 0.87 | 0.61 | 86 | 988.0 |
| 20260506163922 | 54 | 135 | 1.0 | 3.0 | 0.01 | 0.89 | 0.61 | 85 | 988.0 |
| 20260506163822 | 54 | 124 | 1.0 | 3.0 | 0.01 | 0.89 | 0.61 | 86 | 987.9 |
| 20260506163722 | 54 | 68 | 1.0 | 2.0 | 0.01 | 0.89 | 0.61 | 86 | 988.0 |
| 20260506163622 | 54 | 109 | 1.0 | 3.0 | 0.01 | 0.89 | 0.61 | 85 | 988.0 |
| 20260506163522 | 54 | 112 | 1.0 | 3.0 | 0.01 | 0.89 | 0.61 | 85 | 988.0 |
| 20260506163422 | 55 | 131 | 1.0 | 3.0 | 0.01 | 0.89 | 0.61 | 85 | 988.1 |
| 20260506163322 | 55 | 135 | 1.0 | 2.0 | 0.01 | 0.89 | 0.61 | 86 | 988.0 |
| 20260506163222 | 55 | 152 | 1.0 | 2.0 | 0.01 | 0.89 | 0.61 | 85 | 988.1 |
| 20260506163122 | 55 | 135 | 1.0 | 2.0 | 0.01 | 0.89 | 0.61 | 85 | 988.1 |
| 20260506163021 | 55 | 150 | 0.0 | 2.0 | 0.01 | 0.90 | 0.61 | 86 | 988.1 |
| 20260506162921 | 55 | 159 | 0.0 | 2.0 | 0.01 | 0.90 | 0.61 | 86 | 988.0 |
| 20260506162821 | 55 | 236 | 1.0 | 2.0 | 0.01 | 0.90 | 0.61 | 85 | 988.0 |
| 20260506162721 | 54 | 201 | 1.0 | 3.0 | 0.01 | 0.91 | 0.61 | 86 | 988.1 |
| 20260506162621 | 54 | 124 | 1.0 | 3.0 | 0.01 | 0.91 | 0.61 | 85 | 988.1 |
| 20260506162521 | 54 | 116 | 1.0 | 2.0 | 0.01 | 0.91 | 0.61 | 85 | 988.1 |
| 20260506162421 | 54 | 112 | 1.0 | 3.0 | 0.01 | 0.91 | 0.61 | 85 | 988.2 |
| 20260506162321 | 54 | 112 | 1.0 | 3.0 | 0.01 | 0.91 | 0.61 | 85 | 988.0 |
| 20260506162221 | 55 | 112 | 1.0 | 2.0 | 0.01 | 0.91 | 0.61 | 85 | 988.1 |
| 20260506162121 | 54 | 131 | 1.0 | 2.0 | 0.00 | 0.90 | 0.60 | 85 | 988.1 |
| 20260506162021 | 54 | 118 | 0.0 | 2.0 | 0.00 | 0.91 | 0.60 | 86 | 988.2 |
| 20260506161921 | 54 | 40 | 0.0 | 2.0 | 0.00 | 0.91 | 0.60 | 85 | 988.0 |
| 20260506161821 | 54 | 112 | 1.0 | 2.0 | 0.00 | 0.91 | 0.60 | 85 | 988.0 |
| 20260506161721 | 54 | 113 | 0.0 | 2.0 | 0.00 | 0.91 | 0.60 | 86 | 988.0 |
| 20260506161621 | 54 | 244 | 1.0 | 1.0 | 0.00 | 0.91 | 0.60 | 85 | 988.2 |
| 20260506161521 | 54 | 264 | 1.0 | 5.0 | 0.01 | 0.91 | 0.60 | 84 | 988.2 |
| 20260506161421 | 54 | 290 | 1.0 | 5.0 | 0.01 | 0.91 | 0.60 | 84 | 988.2 |
| 20260506161321 | 54 | 216 | 1.0 | 2.0 | 0.01 | 0.91 | 0.60 | 85 | 988.1 |
| 20260506161223 | 54 | 114 | 1.0 | 2.0 | 0.01 | 0.91 | 0.60 | 86 | 988.1 |
| 20260506161123 | 54 | 112 | 1.0 | 2.0 | 0.01 | 0.91 | 0.60 | 86 | 988.1 |
| 20260506161023 | 54 | 37 | 0.0 | 2.0 | 0.01 | 0.91 | 0.60 | 86 | 988.1 |
| 20260506160923 | 54 | 357 | 0.0 | 2.0 | 0.01 | 0.91 | 0.60 | 85 | 988.1 |
| 20260506160822 | 54 | 131 | 1.0 | 2.0 | 0.01 | 0.91 | 0.60 | 85 | 988.1 |
| 20260506160722 | 54 | 129 | 1.0 | 2.0 | 0.01 | 0.91 | 0.60 | 85 | 988.2 |
| 20260506160622 | 54 | 119 | 1.0 | 2.0 | 0.01 | 0.91 | 0.60 | 85 | 988.1 |
| 20260506160522 | 54 | 135 | 2.0 | 3.0 | 0.01 | 0.91 | 0.60 | 85 | 988.1 |
| 20260506160422 | 55 | 113 | 1.0 | 3.0 | 0.02 | 0.91 | 0.60 | 85 | 988.0 |
| 20260506160322 | 55 | 45 | 2.0 | 6.0 | 0.02 | 0.91 | 0.60 | 85 | 988.0 |
| 20260506160222 | 55 | 48 | 2.0 | 6.0 | 0.02 | 0.91 | 0.60 | 85 | 988.2 |
| 20260506160122 | 55 | 118 | 0.0 | 2.0 | 0.02 | 0.91 | 0.60 | 85 | 988.2 |
| 20260506160022 | 55 | 98 | 1.0 | 2.0 | 0.02 | 0.91 | 0.60 | 86 | 988.1 |
| 20260506155922 | 55 | 180 | 1.0 | 3.0 | 0.04 | 0.91 | 0.60 | 85 | 988.1 |
| 20260506155822 | 55 | 169 | 2.0 | 5.0 | 0.04 | 0.91 | 0.60 | 84 | 988.1 |
| 20260506155722 | 55 | 115 | 1.0 | 5.0 | 0.04 | 0.91 | 0.60 | 85 | 988.2 |
| 20260506155622 | 55 | 68 | 0.0 | 3.0 | 0.05 | 0.91 | 0.60 | 86 | 988.1 |
| 20260506155522 | 55 | 76 | 0.0 | 5.0 | 0.05 | 0.91 | 0.60 | 85 | 988.1 |
| 20260506155422 | 55 | 98 | 1.0 | 5.0 | 0.05 | 0.91 | 0.60 | 85 | 987.9 |
| 20260506155322 | 55 | 139 | 1.0 | 5.0 | 0.06 | 0.91 | 0.60 | 84 | 988.1 |
| 20260506155222 | 55 | 352 | 1.0 | 5.0 | 0.06 | 0.91 | 0.60 | 84 | 988.2 |
| 20260506155122 | 55 | 69 | 1.0 | 1.0 | 0.06 | 0.91 | 0.60 | 85 | 988.2 |
| 20260506155022 | 55 | 140 | 1.0 | 3.0 | 0.06 | 0.91 | 0.60 | 83 | 988.1 |
| 20260506154922 | 55 | 164 | 2.0 | 6.0 | 0.06 | 0.91 | 0.60 | 83 | 988.2 |
| 20260506154822 | 55 | 178 | 3.0 | 6.0 | 0.07 | 0.91 | 0.60 | 82 | 988.1 |
| 20260506154722 | 55 | 119 | 2.0 | 6.0 | 0.07 | 0.91 | 0.60 | 83 | 988.1 |
| 20260506154622 | 55 | 59 | 1.0 | 2.0 | 0.07 | 0.91 | 0.60 | 84 | 988.1 |
| 20260506154522 | 55 | 123 | 1.0 | 5.0 | 0.08 | 0.91 | 0.60 | 83 | 988.1 |
| 20260506154422 | 55 | 113 | 2.0 | 5.0 | 0.08 | 0.91 | 0.60 | 83 | 988.2 |
| 20260506154322 | 55 | 84 | 1.0 | 5.0 | 0.08 | 0.91 | 0.60 | 84 | 988.2 |
| 20260506154221 | 55 | 225 | 1.0 | 5.0 | 0.08 | 0.91 | 0.60 | 84 | 988.1 |
| 20260506154122 | 55 | 122 | 1.0 | 6.0 | 0.09 | 0.91 | 0.60 | 83 | 988.1 |
| 20260506154021 | 55 | 112 | 2.0 | 6.0 | 0.09 | 0.91 | 0.60 | 84 | 988.1 |
| 20260506153921 | 55 | 112 | 1.0 | 6.0 | 0.09 | 0.91 | 0.60 | 85 | 988.1 |
| 20260506153821 | 55 | 217 | 1.0 | 2.0 | 0.09 | 0.91 | 0.60 | 85 | 988.1 |
| 20260506153721 | 55 | 262 | 1.0 | 5.0 | 0.09 | 0.91 | 0.60 | 85 | 988.2 |
| 20260506153621 | 55 | 246 | 2.0 | 5.0 | 0.11 | 0.91 | 0.60 | 85 | 988.1 |
| 20260506153521 | 55 | 113 | 1.0 | 6.0 | 0.11 | 0.91 | 0.60 | 85 | 988.2 |
| 20260506153421 | 55 | 112 | 2.0 | 6.0 | 0.11 | 0.91 | 0.60 | 85 | 988.2 |
| 20260506153322 | 55 | 107 | 1.0 | 6.0 | 0.11 | 0.91 | 0.60 | 86 | 988.1 |
| 20260506153221 | 55 | 91 | 1.0 | 3.0 | 0.12 | 0.91 | 0.60 | 86 | 988.4 |
| 20260506153121 | 55 | 143 | 1.0 | 5.0 | 0.12 | 0.91 | 0.60 | 86 | 988.1 |
| 20260506153021 | 55 | 131 | 1.0 | 5.0 | 0.13 | 0.91 | 0.60 | 86 | 988.1 |
| 20260506152921 | 55 | 109 | 1.0 | 3.0 | 0.13 | 0.91 | 0.60 | 87 | 988.0 |
| 20260506152821 | 55 | 135 | 1.0 | 3.0 | 0.13 | 0.91 | 0.60 | 87 | 988.1 |
| 20260506152721 | 55 | 112 | 1.0 | 2.0 | 0.14 | 0.91 | 0.60 | 87 | 988.2 |
| 20260506152621 | 55 | 68 | 1.0 | 2.0 | 0.14 | 0.91 | 0.60 | 87 | 988.1 |
| 20260506152521 | 55 | 85 | 1.0 | 2.0 | 0.14 | 0.91 | 0.60 | 87 | 988.1 |
| 20260506152421 | 55 | 111 | 2.0 | 5.0 | 0.14 | 0.91 | 0.60 | 86 | 988.1 |
| 20260506152321 | 55 | 107 | 2.0 | 5.0 | 0.15 | 0.91 | 0.60 | 87 | 988.0 |
| 20260506152223 | 55 | 52 | 0.0 | 2.0 | 0.15 | 0.91 | 0.60 | 87 | 988.0 |
| 20260506152123 | 55 | 124 | 1.0 | 2.0 | 0.15 | 0.91 | 0.60 | 87 | 988.0 |
| 20260506152023 | 55 | 135 | 1.0 | 2.0 | 0.15 | 0.91 | 0.60 | 88 | 988.1 |
| 20260506151923 | 55 | 127 | 1.0 | 2.0 | 0.15 | 0.91 | 0.60 | 88 | 988.0 |
| 20260506151822 | 55 | 112 | 1.0 | 3.0 | 0.15 | 0.91 | 0.60 | 87 | 988.0 |
| 20260506151722 | 55 | 112 | 1.0 | 3.0 | 0.17 | 0.91 | 0.60 | 87 | 988.0 |
| 20260506151622 | 55 | 112 | 2.0 | 5.0 | 0.17 | 0.91 | 0.60 | 88 | 988.0 |
| 20260506151522 | 55 | 112 | 2.0 | 5.0 | 0.15 | 0.90 | 0.59 | 88 | 988.1 |
| 20260506151422 | 55 | 112 | 2.0 | 5.0 | 0.15 | 0.90 | 0.59 | 88 | 988.0 |
| 20260506151322 | 55 | 112 | 2.0 | 5.0 | 0.15 | 0.90 | 0.59 | 88 | 988.1 |
| 20260506151222 | 55 | 36 | 0.0 | 3.0 | 0.15 | 0.90 | 0.59 | 89 | 988.1 |
| 20260506151122 | 55 | 66 | 1.0 | 2.0 | 0.15 | 0.90 | 0.59 | 89 | 988.1 |
| 20260506151022 | 55 | 309 | 0.0 | 2.0 | 0.17 | 0.90 | 0.59 | 89 | 988.2 |
| 20260506150922 | 55 | 137 | 0.0 | 1.0 | 0.17 | 0.90 | 0.59 | 89 | 988.3 |
| 20260506150822 | 55 | 112 | 1.0 | 3.0 | 0.17 | 0.90 | 0.59 | 89 | 988.1 |
| 20260506150722 | 55 | 152 | 1.0 | 7.0 | 0.17 | 0.90 | 0.59 | 89 | 988.3 |
| 20260506150622 | 55 | 122 | 1.0 | 7.0 | 0.17 | 0.90 | 0.59 | 89 | 988.2 |
| 20260506150522 | 55 | 123 | 1.0 | 3.0 | 0.17 | 0.90 | 0.59 | 89 | 988.1 |
| 20260506150422 | 55 | 48 | 1.0 | 3.0 | 0.17 | 0.89 | 0.58 | 89 | 988.0 |
| 20260506150322 | 55 | 172 | 1.0 | 2.0 | 0.17 | 0.89 | 0.58 | 89 | 988.0 |
| 20260506150222 | 55 | 53 | 1.0 | 2.0 | 0.18 | 0.89 | 0.58 | 89 | 988.0 |
| 20260506150122 | 55 | 248 | 1.0 | 2.0 | 0.19 | 0.89 | 0.58 | 89 | 988.0 |
| 20260506150022 | 55 | 39 | 1.0 | 2.0 | 0.20 | 0.89 | 0.58 | 89 | 988.0 |
| 20260506145922 | 55 | 315 | 1.0 | 2.0 | 0.19 | 0.87 | 0.57 | 89 | 988.0 |
| 20260506145822 | 55 | 82 | 1.0 | 5.0 | 0.20 | 0.87 | 0.57 | 88 | 988.1 |
| 20260506145722 | 55 | 99 | 1.0 | 5.0 | 0.21 | 0.87 | 0.57 | 89 | 987.9 |
| 20260506145621 | 55 | 323 | 1.0 | 3.0 | 0.20 | 0.86 | 0.56 | 88 | 988.0 |
| 20260506145521 | 55 | 67 | 1.0 | 2.0 | 0.21 | 0.86 | 0.56 | 88 | 987.9 |
| 20260506145421 | 55 | 324 | 1.0 | 2.0 | 0.21 | 0.86 | 0.56 | 88 | 987.9 |
| 20260506145321 | 55 | 145 | 1.0 | 3.0 | 0.21 | 0.85 | 0.54 | 88 | 987.9 |
| 20260506145221 | 55 | 315 | 1.0 | 3.0 | 0.21 | 0.85 | 0.54 | 88 | 987.9 |
| 20260506145121 | 55 | 14 | 2.0 | 5.0 | 0.21 | 0.85 | 0.54 | 88 | 987.8 |
| 20260506145021 | 55 | 113 | 2.0 | 6.0 | 0.21 | 0.85 | 0.54 | 88 | 987.8 |
| 20260506144921 | 55 | 201 | 1.0 | 6.0 | 0.21 | 0.85 | 0.54 | 88 | 987.8 |
| 20260506144821 | 55 | 158 | 1.0 | 2.0 | 0.20 | 0.84 | 0.53 | 88 | 987.9 |
| 20260506144721 | 55 | 143 | 1.0 | 3.0 | 0.20 | 0.84 | 0.53 | 88 | 987.8 |
| 20260506144621 | 55 | 142 | 1.0 | 3.0 | 0.21 | 0.84 | 0.53 | 88 | 987.7 |
| 20260506144521 | 55 | 121 | 1.0 | 6.0 | 0.20 | 0.83 | 0.52 | 88 | 987.8 |
| 20260506144421 | 55 | 94 | 2.0 | 6.0 | 0.20 | 0.83 | 0.52 | 88 | 987.8 |
| 20260506144321 | 55 | 50 | 1.0 | 2.0 | 0.20 | 0.83 | 0.52 | 89 | 987.8 |
| 20260506144221 | 55 | 97 | 1.0 | 2.0 | 0.20 | 0.83 | 0.52 | 89 | 987.8 |
| 20260506144121 | 55 | 90 | 1.0 | 2.0 | 0.19 | 0.81 | 0.51 | 88 | 987.7 |
| 20260506144023 | 55 | 97 | 1.0 | 3.0 | 0.19 | 0.81 | 0.51 | 88 | 987.8 |
| 20260506143923 | 55 | 22 | 2.0 | 5.0 | 0.19 | 0.81 | 0.51 | 88 | 987.8 |
| 20260506143823 | 55 | 26 | 2.0 | 5.0 | 0.19 | 0.81 | 0.51 | 88 | 987.8 |
| 20260506143722 | 55 | 112 | 2.0 | 3.0 | 0.19 | 0.81 | 0.51 | 88 | 987.7 |
| 20260506143622 | 55 | 112 | 2.0 | 7.0 | 0.18 | 0.80 | 0.50 | 88 | 987.7 |
| 20260506143522 | 55 | 313 | 1.0 | 7.0 | 0.18 | 0.80 | 0.50 | 89 | 987.9 |
| 20260506143422 | 55 | 99 | 1.0 | 3.0 | 0.18 | 0.80 | 0.50 | 89 | 987.9 |
| 20260506143322 | 55 | 111 | 0.0 | 3.0 | 0.18 | 0.80 | 0.50 | 89 | 987.8 |
| 20260506143222 | 55 | 103 | 1.0 | 2.0 | 0.17 | 0.79 | 0.48 | 89 | 987.8 |
| 20260506143122 | 55 | 135 | 2.0 | 5.0 | 0.17 | 0.79 | 0.48 | 89 | 987.7 |
| 20260506143022 | 55 | 180 | 2.0 | 5.0 | 0.15 | 0.78 | 0.47 | 88 | 987.8 |
| 20260506142922 | 55 | 136 | 1.0 | 5.0 | 0.15 | 0.78 | 0.47 | 88 | 987.7 |
| 20260506142822 | 55 | 3 | 2.0 | 3.0 | 0.15 | 0.78 | 0.47 | 88 | 987.6 |
| 20260506142722 | 55 | 180 | 2.0 | 3.0 | 0.14 | 0.77 | 0.46 | 88 | 987.5 |
| 20260506142622 | 55 | 35 | 1.0 | 5.0 | 0.14 | 0.77 | 0.46 | 89 | 987.7 |
| 20260506142522 | 55 | 81 | 1.0 | 5.0 | 0.14 | 0.77 | 0.46 | 89 | 987.7 |
| 20260506142422 | 55 | 347 | 1.0 | 5.0 | 0.14 | 0.77 | 0.46 | 89 | 987.7 |
| 20260506142322 | 56 | 17 | 1.0 | 2.0 | 0.14 | 0.76 | 0.45 | 89 | 987.7 |
| 20260506142222 | 56 | 311 | 1.0 | 5.0 | 0.14 | 0.76 | 0.45 | 88 | 987.6 |
| 20260506142122 | 56 | 3 | 1.0 | 5.0 | 0.14 | 0.76 | 0.45 | 88 | 987.6 |
| 20260506142022 | 56 | 13 | 1.0 | 2.0 | 0.14 | 0.76 | 0.45 | 88 | 987.6 |
| 20260506141922 | 56 | 92 | 1.0 | 2.0 | 0.14 | 0.76 | 0.45 | 88 | 987.7 |
| 20260506141822 | 56 | 40 | 1.0 | 2.0 | 0.14 | 0.76 | 0.45 | 88 | 987.6 |
| 20260506141722 | 56 | 81 | 1.0 | 2.0 | 0.13 | 0.74 | 0.44 | 88 | 987.7 |
| 20260506141622 | 56 | 135 | 1.0 | 2.0 | 0.13 | 0.74 | 0.44 | 88 | 987.7 |
| 20260506141522 | 56 | 345 | 1.0 | 2.0 | 0.13 | 0.74 | 0.44 | 88 | 987.6 |
| 20260506141422 | 56 | 80 | 1.0 | 2.0 | 0.13 | 0.74 | 0.44 | 87 | 987.6 |
| 20260506141322 | 56 | 303 | 1.0 | 2.0 | 0.13 | 0.74 | 0.44 | 88 | 987.6 |
| 20260506141222 | 56 | 112 | 1.0 | 3.0 | 0.13 | 0.74 | 0.44 | 88 | 987.4 |
| 20260506141122 | 56 | 284 | 1.0 | 3.0 | 0.14 | 0.74 | 0.44 | 88 | 987.5 |
| 20260506141022 | 56 | 175 | 1.0 | 2.0 | 0.14 | 0.73 | 0.43 | 88 | 987.5 |
| 20260506140921 | 56 | 46 | 1.0 | 6.0 | 0.14 | 0.73 | 0.43 | 88 | 987.5 |
| 20260506140821 | 56 | 134 | 1.0 | 6.0 | 0.15 | 0.73 | 0.43 | 88 | 987.3 |
| 20260506140721 | 56 | 100 | 1.0 | 6.0 | 0.17 | 0.73 | 0.43 | 88 | 987.4 |
| 20260506140621 | 56 | 99 | 1.0 | 5.0 | 0.18 | 0.73 | 0.43 | 89 | 987.3 |
| 20260506140521 | 56 | 102 | 0.0 | 5.0 | 0.20 | 0.73 | 0.43 | 89 | 987.5 |
| 20260506140421 | 56 | 180 | 1.0 | 2.0 | 0.22 | 0.72 | 0.41 | 88 | 987.6 |
| 20260506140321 | 56 | 33 | 1.0 | 3.0 | 0.28 | 0.72 | 0.41 | 88 | 987.5 |
| 20260506140221 | 56 | 135 | 1.0 | 3.0 | 0.28 | 0.71 | 0.40 | 89 | 987.6 |
| 20260506140121 | 56 | 95 | 0.0 | 1.0 | 0.28 | 0.70 | 0.39 | 88 | 987.5 |
| 20260506140021 | 56 | 53 | 0.0 | 1.0 | 0.30 | 0.69 | 0.38 | 88 | 987.4 |
| 20260506135921 | 56 | 82 | 0.0 | 1.0 | 0.37 | 0.69 | 0.38 | 88 | 987.6 |
| 20260506135821 | 56 | 337 | 0.0 | 1.0 | 0.35 | 0.67 | 0.37 | 87 | 987.6 |
| 20260506135721 | 56 | 312 | 1.0 | 2.0 | 0.35 | 0.66 | 0.35 | 87 | 987.5 |
| 20260506135621 | 56 | 82 | 1.0 | 2.0 | 0.35 | 0.66 | 0.35 | 87 | 987.5 |
| 20260506135521 | 56 | 327 | 0.0 | 2.0 | 0.34 | 0.65 | 0.34 | 87 | 987.4 |
| 20260506135421 | 57 | 303 | 0.0 | 2.0 | 0.34 | 0.65 | 0.34 | 86 | 987.5 |
| 20260506135321 | 57 | 138 | 1.0 | 2.0 | 0.33 | 0.64 | 0.33 | 86 | 987.5 |
| 20260506135221 | 57 | 21 | 0.0 | 2.0 | 0.33 | 0.64 | 0.33 | 87 | 987.4 |
| 20260506135121 | 57 | 329 | 0.0 | 0.0 | 0.33 | 0.64 | 0.33 | 88 | 987.4 |
| 20260506135021 | 57 | 315 | 0.0 | 0.0 | 0.33 | 0.64 | 0.33 | 88 | 987.3 |
| 20260506134921 | 56 | 315 | 0.0 | 0.0 | 0.33 | 0.64 | 0.33 | 88 | 987.3 |
| 20260506134821 | 56 | 315 | 0.0 | 0.0 | 0.33 | 0.64 | 0.33 | 88 | 987.3 |
| 20260506134723 | 56 | 306 | 0.0 | 0.0 | 0.33 | 0.64 | 0.33 | 88 | 987.2 |
| 20260506134623 | 57 | 235 | 0.0 | 3.0 | 0.32 | 0.63 | 0.32 | 89 | 987.4 |
| 20260506134523 | 57 | 267 | 1.0 | 3.0 | 0.32 | 0.63 | 0.32 | 88 | 987.3 |
| 20260506134422 | 57 | 280 | 0.0 | 3.0 | 0.32 | 0.63 | 0.32 | 89 | 987.5 |
| 20260506134322 | 57 | 5 | 0.0 | 0.0 | 0.32 | 0.63 | 0.32 | 90 | 987.3 |
| 20260506134222 | 57 | 15 | 0.0 | 0.0 | 0.32 | 0.63 | 0.32 | 90 | 987.3 |
| 20260506134122 | 57 | 0 | 0.0 | 0.0 | 0.32 | 0.63 | 0.32 | 90 | 987.3 |
| 20260506134022 | 57 | 79 | 0.0 | 0.0 | 0.32 | 0.63 | 0.32 | 90 | 987.3 |
| 20260506133922 | 57 | 53 | 0.0 | 0.0 | 0.32 | 0.63 | 0.32 | 90 | 987.4 |
| 20260506133822 | 57 | 345 | 0.0 | 0.0 | 0.32 | 0.63 | 0.32 | 90 | 987.2 |
| 20260506133722 | 57 | 338 | 0.0 | 0.0 | 0.32 | 0.63 | 0.32 | 90 | 987.3 |
| 20260506133622 | 57 | 298 | 0.0 | 0.0 | 0.32 | 0.63 | 0.32 | 90 | 987.2 |
| 20260506133522 | 57 | 292 | 0.0 | 0.0 | 0.32 | 0.63 | 0.32 | 90 | 987.3 |
| 20260506133422 | 57 | 17 | 0.0 | 0.0 | 0.32 | 0.63 | 0.32 | 90 | 987.1 |
| 20260506133322 | 57 | 304 | 0.0 | 1.0 | 0.32 | 0.63 | 0.32 | 89 | 987.3 |
| 20260506133222 | 57 | 347 | 0.0 | 1.0 | 0.32 | 0.63 | 0.32 | 90 | 987.3 |
| 20260506133122 | 57 | 351 | 0.0 | 0.0 | 0.32 | 0.63 | 0.32 | 90 | 987.2 |
| 20260506133022 | 57 | 292 | 0.0 | 1.0 | 0.32 | 0.63 | 0.32 | 89 | 987.3 |
| 20260506132922 | 57 | 313 | 0.0 | 3.0 | 0.32 | 0.63 | 0.32 | 89 | 987.4 |
| 20260506132822 | 57 | 251 | 1.0 | 3.0 | 0.32 | 0.63 | 0.32 | 89 | 987.4 |
| 20260506132722 | 57 | 255 | 1.0 | 3.0 | 0.32 | 0.63 | 0.32 | 89 | 987.4 |
| 20260506132622 | 57 | 270 | 1.0 | 3.0 | 0.32 | 0.63 | 0.32 | 89 | 987.2 |
| 20260506132522 | 57 | 300 | 1.0 | 3.0 | 0.32 | 0.63 | 0.32 | 89 | 987.4 |
| 20260506132422 | 57 | 285 | 1.0 | 3.0 | 0.32 | 0.63 | 0.32 | 89 | 987.3 |
| 20260506132322 | 57 | 290 | 1.0 | 3.0 | 0.31 | 0.61 | 0.31 | 89 | 987.4 |
| 20260506132222 | 57 | 338 | 1.0 | 3.0 | 0.31 | 0.61 | 0.31 | 89 | 987.3 |
| 20260506132122 | 57 | 254 | 0.0 | 1.0 | 0.31 | 0.61 | 0.31 | 89 | 987.2 |
| 20260506132021 | 57 | 311 | 0.0 | 1.0 | 0.31 | 0.61 | 0.31 | 90 | 987.3 |
| 20260506131921 | 57 | 303 | 0.0 | 1.0 | 0.31 | 0.61 | 0.31 | 89 | 987.3 |
| 20260506131821 | 57 | 285 | 0.0 | 1.0 | 0.31 | 0.61 | 0.31 | 89 | 987.2 |
| 20260506131721 | 57 | 305 | 0.0 | 1.0 | 0.31 | 0.61 | 0.31 | 89 | 987.1 |
| 20260506131621 | 57 | 322 | 0.0 | 0.0 | 0.31 | 0.61 | 0.31 | 89 | 987.3 |
| 20260506131521 | 57 | 325 | 0.0 | 0.0 | 0.31 | 0.61 | 0.31 | 89 | 987.2 |
| 20260506131421 | 57 | 315 | 0.0 | 0.0 | 0.31 | 0.61 | 0.31 | 89 | 987.2 |
| 20260506131321 | 57 | 315 | 0.0 | 0.0 | 0.31 | 0.61 | 0.31 | 89 | 987.2 |
| 20260506131221 | 56 | 315 | 0.0 | 1.0 | 0.31 | 0.61 | 0.31 | 88 | 987.0 |
| 20260506131121 | 56 | 305 | 0.0 | 1.0 | 0.30 | 0.60 | 0.30 | 87 | 987.1 |
| 20260506131021 | 56 | 292 | 0.0 | 1.0 | 0.28 | 0.59 | 0.28 | 87 | 987.1 |
| 20260506130921 | 56 | 291 | 1.0 | 3.0 | 0.28 | 0.59 | 0.28 | 86 | 987.2 |
| 20260506130821 | 56 | 278 | 1.0 | 3.0 | 0.27 | 0.58 | 0.27 | 86 | 987.3 |
| 20260506130721 | 56 | 305 | 1.0 | 6.0 | 0.26 | 0.57 | 0.26 | 85 | 987.2 |
| 20260506130621 | 57 | 305 | 1.0 | 6.0 | 0.25 | 0.56 | 0.25 | 84 | 987.3 |
| 20260506130521 | 58 | 122 | 5.0 | 9.0 | 0.22 | 0.53 | 0.22 | 82 | 987.3 |
| 20260506130421 | 59 | 254 | 5.0 | 9.0 | 0.19 | 0.50 | 0.19 | 83 | 987.2 |
| 20260506130321 | 59 | 283 | 2.0 | 3.0 | 0.13 | 0.44 | 0.13 | 84 | 987.2 |
| 20260506130221 | 60 | 284 | 1.0 | 3.0 | 0.12 | 0.43 | 0.12 | 83 | 987.1 |
| 20260506130123 | 61 | 66 | 1.0 | 6.0 | 0.11 | 0.41 | 0.11 | 82 | 987.1 |
| 20260506130023 | 61 | 288 | 2.0 | 6.0 | 0.08 | 0.39 | 0.08 | 77 | 987.2 |
| 20260506125923 | 62 | 338 | 1.0 | 3.0 | 0.01 | 0.32 | 0.01 | 74 | 987.1 |
| 20260506125823 | 62 | 243 | 2.0 | 5.0 | 0.01 | 0.32 | 0.01 | 73 | 987.0 |
| 20260506125722 | 62 | 219 | 1.0 | 7.0 | 0.00 | 0.31 | 0.00 | 72 | 986.9 |
| 20260506125622 | 62 | 270 | 3.0 | 8.0 | 0.00 | 0.31 | 0.00 | 69 | 986.7 |
| 20260506125522 | 62 | 274 | 3.0 | 8.0 | 0.00 | 0.31 | 0.00 | 67 | 986.6 |
| 20260506125422 | 62 | 292 | 2.0 | 6.0 | 0.00 | 0.31 | 0.00 | 67 | 986.7 |
| 20260506125322 | 62 | 261 | 3.0 | 6.0 | 0.00 | 0.31 | 0.00 | 67 | 986.7 |
| 20260506125222 | 62 | 270 | 3.0 | 6.0 | 0.00 | 0.31 | 0.00 | 66 | 986.6 |
| 20260506125122 | 62 | 270 | 3.0 | 6.0 | 0.00 | 0.31 | 0.00 | 66 | 986.6 |
| 20260506125022 | 62 | 270 | 3.0 | 8.0 | 0.00 | 0.31 | 0.00 | 65 | 986.5 |
| 20260506124922 | 62 | 270 | 3.0 | 8.0 | 0.00 | 0.31 | 0.00 | 67 | 986.6 |
| 20260506124822 | 62 | 270 | 2.0 | 6.0 | 0.00 | 0.31 | 0.00 | 67 | 986.8 |
| 20260506124722 | 62 | 270 | 2.0 | 6.0 | 0.00 | 0.31 | 0.00 | 67 | 986.7 |
| 20260506124622 | 62 | 270 | 3.0 | 8.0 | 0.00 | 0.31 | 0.00 | 67 | 986.6 |
| 20260506124522 | 62 | 298 | 5.0 | 8.0 | 0.00 | 0.31 | 0.00 | 67 | 986.6 |
| 20260506124422 | 62 | 247 | 3.0 | 8.0 | 0.00 | 0.31 | 0.00 | 67 | 986.7 |
| 20260506124322 | 62 | 230 | 2.0 | 8.0 | 0.00 | 0.31 | 0.00 | 67 | 986.6 |
| 20260506124222 | 63 | 264 | 2.0 | 6.0 | 0.00 | 0.31 | 0.00 | 67 | 986.6 |
| 20260506124122 | 63 | 285 | 5.0 | 8.0 | 0.00 | 0.31 | 0.00 | 65 | 986.5 |
| 20260506124022 | 64 | 272 | 3.0 | 8.0 | 0.00 | 0.31 | 0.00 | 64 | 986.4 |
| 20260506123922 | 64 | 307 | 2.0 | 8.0 | 0.00 | 0.31 | 0.00 | 66 | 986.7 |
| 20260506123822 | 64 | 279 | 1.0 | 3.0 | 0.00 | 0.31 | 0.00 | 66 | 986.5 |
| 20260506123722 | 64 | 265 | 1.0 | 3.0 | 0.00 | 0.31 | 0.00 | 65 | 986.5 |
| 20260506123622 | 64 | 112 | 0.0 | 1.0 | 0.00 | 0.31 | 0.00 | 65 | 986.6 |
| 20260506123521 | 64 | 133 | 1.0 | 2.0 | 0.00 | 0.31 | 0.00 | 65 | 986.7 |
| 20260506123421 | 64 | 270 | 1.0 | 5.0 | 0.00 | 0.31 | 0.00 | 64 | 986.6 |
| 20260506123321 | 64 | 289 | 2.0 | 5.0 | 0.00 | 0.31 | 0.00 | 64 | 986.5 |
| 20260506123221 | 65 | 294 | 1.0 | 3.0 | 0.00 | 0.31 | 0.00 | 63 | 986.6 |
| 20260506123121 | 65 | 307 | 1.0 | 3.0 | 0.00 | 0.31 | 0.00 | 63 | 986.4 |
| 20260506123021 | 65 | 292 | 1.0 | 3.0 | 0.00 | 0.31 | 0.00 | 62 | 986.5 |
| 20260506122921 | 65 | 308 | 1.0 | 3.0 | 0.00 | 0.31 | 0.00 | 61 | 986.5 |
| 20260506122821 | 65 | 276 | 1.0 | 3.0 | 0.00 | 0.31 | 0.00 | 61 | 986.6 |
| 20260506122721 | 65 | 289 | 1.0 | 2.0 | 0.00 | 0.31 | 0.00 | 61 | 986.5 |
| 20260506122621 | 65 | 226 | 1.0 | 2.0 | 0.00 | 0.31 | 0.00 | 61 | 986.6 |
| 20260506122521 | 65 | 285 | 1.0 | 1.0 | 0.00 | 0.31 | 0.00 | 62 | 986.5 |
| 20260506122421 | 65 | 313 | 1.0 | 3.0 | 0.00 | 0.31 | 0.00 | 61 | 986.5 |
| 20260506122321 | 64 | 297 | 1.0 | 3.0 | 0.00 | 0.31 | 0.00 | 62 | 986.5 |
| 20260506122221 | 65 | 270 | 1.0 | 3.0 | 0.00 | 0.31 | 0.00 | 62 | 986.6 |
| 20260506122121 | 65 | 270 | 1.0 | 3.0 | 0.00 | 0.31 | 0.00 | 62 | 986.4 |
| 20260506122021 | 65 | 272 | 2.0 | 6.0 | 0.00 | 0.31 | 0.00 | 61 | 986.5 |
| 20260506121921 | 65 | 287 | 1.0 | 3.0 | 0.00 | 0.31 | 0.00 | 61 | 986.6 |
| 20260506121821 | 65 | 272 | 1.0 | 5.0 | 0.00 | 0.31 | 0.00 | 60 | 986.4 |
| 20260506121721 | 65 | 291 | 1.0 | 5.0 | 0.00 | 0.31 | 0.00 | 61 | 986.4 |
| 20260506121621 | 66 | 343 | 1.0 | 5.0 | 0.00 | 0.31 | 0.00 | 60 | 986.5 |
| 20260506121521 | 66 | 346 | 2.0 | 6.0 | 0.00 | 0.31 | 0.00 | 59 | 986.5 |
| 20260506121423 | 66 | 331 | 2.0 | 6.0 | 0.00 | 0.31 | 0.00 | 59 | 986.5 |
| 20260506121323 | 66 | 302 | 1.0 | 2.0 | 0.00 | 0.31 | 0.00 | 58 | 986.6 |
| 20260506121223 | 66 | 357 | 0.0 | 2.0 | 0.00 | 0.31 | 0.00 | 59 | 986.6 |
| 20260506121123 | 66 | 265 | 1.0 | 5.0 | 0.00 | 0.31 | 0.00 | 60 | 986.6 |
| 20260506121022 | 65 | 256 | 1.0 | 5.0 | 0.00 | 0.31 | 0.00 | 59 | 986.5 |
| 20260506120923 | 65 | 270 | 1.0 | 2.0 | 0.00 | 0.31 | 0.00 | 59 | 986.5 |
| 20260506120822 | 64 | 270 | 1.0 | 2.0 | 0.00 | 0.31 | 0.00 | 61 | 986.5 |
| 20260506120722 | 64 | 282 | 2.0 | 3.0 | 0.00 | 0.31 | 0.00 | 61 | 986.7 |
| 20260506120622 | 64 | 245 | 2.0 | 3.0 | 0.00 | 0.31 | 0.00 | 62 | 986.7 |
| 20260506120522 | 64 | 225 | 3.0 | 7.0 | 0.00 | 0.31 | 0.00 | 62 | 986.7 |
| 20260506120422 | 64 | 266 | 3.0 | 8.0 | 0.00 | 0.31 | 0.00 | 61 | 986.9 |
| 20260506120322 | 65 | 291 | 2.0 | 5.0 | 0.00 | 0.31 | 0.00 | 62 | 986.6 |
| 20260506120222 | 65 | 287 | 2.0 | 5.0 | 0.00 | 0.31 | 0.00 | 62 | 986.6 |
| 20260506120122 | 65 | 286 | 1.0 | 5.0 | 0.00 | 0.31 | 0.00 | 62 | 986.6 |
| 20260506120022 | 64 | 281 | 0.0 | 3.0 | 0.00 | 0.31 | 0.00 | 61 | 986.6 |
| 20260506115922 | 64 | 315 | 0.0 | 3.0 | 0.00 | 0.31 | 0.00 | 62 | 986.6 |
| 20260506115822 | 64 | 254 | 3.0 | 7.0 | 0.00 | 0.31 | 0.00 | 63 | 986.7 |
| 20260506115722 | 64 | 249 | 3.0 | 8.0 | 0.00 | 0.31 | 0.00 | 62 | 986.6 |
| 20260506115622 | 64 | 268 | 5.0 | 9.0 | 0.00 | 0.31 | 0.00 | 62 | 986.6 |
| 20260506115522 | 64 | 270 | 5.0 | 9.0 | 0.00 | 0.31 | 0.00 | 62 | 986.6 |
| 20260506115422 | 65 | 270 | 2.0 | 5.0 | 0.00 | 0.31 | 0.00 | 64 | 986.6 |
| 20260506115322 | 65 | 270 | 2.0 | 7.0 | 0.00 | 0.31 | 0.00 | 63 | 986.7 |
| 20260506115222 | 65 | 270 | 3.0 | 7.0 | 0.00 | 0.31 | 0.00 | 62 | 986.7 |
| 20260506115122 | 65 | 270 | 2.0 | 3.0 | 0.00 | 0.31 | 0.00 | 62 | 986.6 |
| 20260506115022 | 65 | 282 | 1.0 | 3.0 | 0.00 | 0.31 | 0.00 | 61 | 986.5 |
| 20260506114921 | 65 | 273 | 1.0 | 5.0 | 0.00 | 0.31 | 0.00 | 61 | 986.6 |
| 20260506114821 | 64 | 265 | 1.0 | 5.0 | 0.00 | 0.31 | 0.00 | 63 | 986.7 |
| 20260506114721 | 64 | 252 | 1.0 | 3.0 | 0.00 | 0.31 | 0.00 | 64 | 986.7 |
| 20260506114621 | 64 | 283 | 2.0 | 5.0 | 0.00 | 0.32 | 0.00 | 64 | 986.8 |
| 20260506114521 | 64 | 322 | 3.0 | 5.0 | 0.00 | 0.32 | 0.00 | 64 | 986.7 |
| 20260506114421 | 65 | 308 | 2.0 | 5.0 | 0.00 | 0.32 | 0.00 | 63 | 986.7 |
| 20260506114321 | 65 | 282 | 2.0 | 5.0 | 0.00 | 0.32 | 0.00 | 61 | 986.7 |
| 20260506114221 | 65 | 278 | 2.0 | 3.0 | 0.00 | 0.32 | 0.00 | 61 | 986.7 |
| 20260506114121 | 65 | 293 | 0.0 | 2.0 | 0.00 | 0.32 | 0.00 | 60 | 986.6 |
| 20260506114021 | 64 | 314 | 0.0 | 1.0 | 0.00 | 0.32 | 0.00 | 62 | 986.8 |
| 20260506113921 | 63 | 315 | 0.0 | 1.0 | 0.00 | 0.32 | 0.00 | 64 | 986.8 |
| 20260506113821 | 63 | 290 | 1.0 | 3.0 | 0.00 | 0.32 | 0.00 | 64 | 986.8 |
| 20260506113721 | 63 | 255 | 2.0 | 5.0 | 0.00 | 0.32 | 0.00 | 64 | 986.8 |
| 20260506113621 | 63 | 269 | 2.0 | 5.0 | 0.00 | 0.32 | 0.00 | 65 | 986.6 |
| 20260506113521 | 63 | 270 | 3.0 | 7.0 | 0.00 | 0.32 | 0.00 | 64 | 986.6 |
| 20260506113421 | 64 | 282 | 5.0 | 7.0 | 0.00 | 0.32 | 0.00 | 64 | 986.5 |
| 20260506113321 | 64 | 292 | 3.0 | 7.0 | 0.00 | 0.32 | 0.00 | 64 | 986.7 |
| 20260506113221 | 64 | 290 | 2.0 | 5.0 | 0.00 | 0.32 | 0.00 | 62 | 986.8 |
| 20260506113121 | 64 | 30 | 1.0 | 2.0 | 0.00 | 0.32 | 0.00 | 63 | 986.7 |
| 20260506113021 | 64 | 317 | 1.0 | 3.0 | 0.00 | 0.32 | 0.00 | 63 | 986.7 |
| 20260506112923 | 64 | 290 | 1.0 | 3.0 | 0.00 | 0.32 | 0.00 | 63 | 986.6 |
| 20260506112823 | 63 | 280 | 0.0 | 3.0 | 0.00 | 0.32 | 0.00 | 65 | 986.7 |
| 20260506112723 | 63 | 292 | 1.0 | 3.0 | 0.00 | 0.32 | 0.00 | 66 | 986.8 |
| 20260506112623 | 63 | 262 | 2.0 | 5.0 | 0.00 | 0.32 | 0.00 | 65 | 986.7 |
| 20260506112522 | 63 | 267 | 1.0 | 5.0 | 0.00 | 0.32 | 0.00 | 64 | 986.7 |
| 20260506112422 | 64 | 258 | 2.0 | 5.0 | 0.00 | 0.32 | 0.00 | 64 | 986.7 |
| 20260506112322 | 65 | 270 | 2.0 | 6.0 | 0.00 | 0.32 | 0.00 | 63 | 986.8 |
| 20260506112222 | 65 | 279 | 3.0 | 6.0 | 0.00 | 0.32 | 0.00 | 63 | 986.7 |
| 20260506112122 | 65 | 292 | 0.0 | 3.0 | 0.00 | 0.32 | 0.00 | 63 | 986.8 |
| 20260506112022 | 65 | 284 | 0.0 | 0.0 | 0.00 | 0.32 | 0.00 | 62 | 986.6 |
| 20260506111922 | 64 | 277 | 0.0 | 0.0 | 0.00 | 0.32 | 0.00 | 62 | 986.7 |
| 20260506111822 | 64 | 292 | 0.0 | 0.0 | 0.00 | 0.32 | 0.00 | 63 | 986.8 |
| 20260506111722 | 64 | 311 | 0.0 | 2.0 | 0.00 | 0.32 | 0.00 | 63 | 986.7 |
| 20260506111622 | 63 | 137 | 1.0 | 2.0 | 0.00 | 0.32 | 0.00 | 63 | 986.8 |
| 20260506111522 | 63 | 280 | 0.0 | 2.0 | 0.00 | 0.32 | 0.00 | 65 | 986.8 |
| 20260506111422 | 63 | 276 | 1.0 | 5.0 | 0.00 | 0.32 | 0.00 | 65 | 986.8 |
| 20260506111322 | 63 | 270 | 3.0 | 6.0 | 0.00 | 0.32 | 0.00 | 65 | 986.7 |
| 20260506111222 | 63 | 260 | 2.0 | 6.0 | 0.00 | 0.32 | 0.00 | 65 | 986.7 |
| 20260506111122 | 63 | 261 | 3.0 | 6.0 | 0.00 | 0.32 | 0.00 | 65 | 986.7 |
| 20260506111022 | 63 | 270 | 2.0 | 6.0 | 0.00 | 0.32 | 0.00 | 65 | 986.8 |
| 20260506110922 | 63 | 254 | 2.0 | 5.0 | 0.00 | 0.32 | 0.00 | 65 | 986.9 |
| 20260506110822 | 63 | 270 | 3.0 | 6.0 | 0.00 | 0.32 | 0.00 | 66 | 986.8 |
| 20260506110722 | 63 | 270 | 2.0 | 6.0 | 0.00 | 0.32 | 0.00 | 67 | 986.8 |
| 20260506110622 | 63 | 292 | 2.0 | 5.0 | 0.00 | 0.32 | 0.00 | 67 | 986.8 |
| 20260506110522 | 63 | 313 | 1.0 | 3.0 | 0.00 | 0.32 | 0.00 | 66 | 986.7 |
| 20260506110422 | 63 | 271 | 1.0 | 1.0 | 0.00 | 0.32 | 0.00 | 66 | 986.8 |
| 20260506110322 | 62 | 270 | 1.0 | 2.0 | 0.00 | 0.32 | 0.00 | 67 | 986.7 |
| 20260506110222 | 62 | 270 | 2.0 | 3.0 | 0.00 | 0.32 | 0.00 | 66 | 986.8 |
| 20260506110121 | 62 | 301 | 2.0 | 3.0 | 0.00 | 0.32 | 0.00 | 68 | 986.8 |
| 20260506110021 | 62 | 293 | 2.0 | 3.0 | 0.00 | 0.32 | 0.00 | 66 | 986.7 |
| 20260506105921 | 62 | 263 | 2.0 | 5.0 | 0.00 | 0.32 | 0.00 | 66 | 986.7 |
| 20260506105821 | 62 | 248 | 2.0 | 5.0 | 0.00 | 0.32 | 0.00 | 67 | 986.8 |
| 20260506105721 | 62 | 277 | 2.0 | 5.0 | 0.00 | 0.32 | 0.00 | 68 | 986.8 |
| 20260506105621 | 62 | 298 | 2.0 | 3.0 | 0.00 | 0.32 | 0.00 | 67 | 986.8 |
| 20260506105521 | 62 | 303 | 2.0 | 3.0 | 0.00 | 0.32 | 0.00 | 68 | 986.9 |
| 20260506105421 | 62 | 259 | 2.0 | 3.0 | 0.00 | 0.32 | 0.00 | 68 | 986.9 |
| 20260506105321 | 62 | 283 | 3.0 | 3.0 | 0.00 | 0.32 | 0.00 | 68 | 986.8 |
| 20260506105221 | 62 | 283 | 3.0 | 6.0 | 0.00 | 0.32 | 0.00 | 68 | 986.9 |
| 20260506105121 | 62 | 270 | 3.0 | 6.0 | 0.00 | 0.32 | 0.00 | 67 | 986.9 |
| 20260506105021 | 62 | 264 | 2.0 | 6.0 | 0.00 | 0.32 | 0.00 | 69 | 986.9 |
| 20260506104921 | 62 | 250 | 1.0 | 2.0 | 0.00 | 0.32 | 0.00 | 71 | 987.0 |
| 20260506104821 | 62 | 277 | 1.0 | 2.0 | 0.00 | 0.32 | 0.00 | 71 | 986.8 |
| 20260506104723 | 62 | 284 | 2.0 | 3.0 | 0.00 | 0.32 | 0.00 | 70 | 986.9 |
| 20260506104623 | 62 | 270 | 2.0 | 5.0 | 0.00 | 0.32 | 0.00 | 68 | 987.0 |
| 20260506104523 | 62 | 295 | 2.0 | 5.0 | 0.00 | 0.32 | 0.00 | 69 | 986.9 |
| 20260506104422 | 62 | 292 | 1.0 | 3.0 | 0.00 | 0.32 | 0.00 | 70 | 986.9 |
| 20260506104322 | 62 | 292 | 2.0 | 3.0 | 0.00 | 0.32 | 0.00 | 70 | 986.8 |
| 20260506104222 | 62 | 282 | 2.0 | 3.0 | 0.00 | 0.32 | 0.00 | 69 | 986.8 |
| 20260506104122 | 62 | 290 | 1.0 | 3.0 | 0.00 | 0.32 | 0.00 | 69 | 986.8 |
| 20260506104022 | 62 | 326 | 2.0 | 5.0 | 0.00 | 0.32 | 0.00 | 68 | 986.7 |
| 20260506103922 | 62 | 315 | 2.0 | 5.0 | 0.00 | 0.32 | 0.00 | 69 | 986.8 |
| 20260506103822 | 62 | 315 | 2.0 | 3.0 | 0.00 | 0.32 | 0.00 | 69 | 986.8 |
| 20260506103722 | 62 | 296 | 2.0 | 6.0 | 0.00 | 0.32 | 0.00 | 67 | 986.9 |
| 20260506103622 | 62 | 285 | 3.0 | 6.0 | 0.00 | 0.32 | 0.00 | 67 | 986.9 |
| 20260506103522 | 62 | 270 | 3.0 | 5.0 | 0.00 | 0.32 | 0.00 | 66 | 987.0 |
| 20260506103422 | 63 | 279 | 2.0 | 5.0 | 0.00 | 0.32 | 0.00 | 64 | 987.0 |
| 20260506103322 | 63 | 288 | 3.0 | 6.0 | 0.00 | 0.32 | 0.00 | 63 | 986.9 |
| 20260506103222 | 64 | 270 | 2.0 | 6.0 | 0.00 | 0.32 | 0.00 | 62 | 986.9 |
| 20260506103122 | 64 | 90 | 1.0 | 3.0 | 0.00 | 0.32 | 0.00 | 64 | 986.9 |
| 20260506103022 | 64 | 270 | 1.0 | 3.0 | 0.00 | 0.32 | 0.00 | 64 | 986.9 |
| 20260506102922 | 64 | 270 | 1.0 | 3.0 | 0.00 | 0.32 | 0.00 | 63 | 987.0 |
| 20260506102822 | 64 | 270 | 1.0 | 2.0 | 0.00 | 0.32 | 0.00 | 63 | 986.9 |
| 20260506102722 | 64 | 292 | 0.0 | 2.0 | 0.00 | 0.32 | 0.00 | 63 | 986.9 |
| 20260506102622 | 64 | 315 | 0.0 | 2.0 | 0.00 | 0.32 | 0.00 | 63 | 987.0 |
| 20260506102522 | 63 | 15 | 0.0 | 2.0 | 0.00 | 0.32 | 0.00 | 65 | 987.0 |
| 20260506102422 | 63 | 10 | 0.0 | 5.0 | 0.00 | 0.32 | 0.00 | 65 | 986.8 |
| 20260506102322 | 63 | 270 | 2.0 | 6.0 | 0.00 | 0.32 | 0.00 | 64 | 986.9 |
| 20260506102222 | 63 | 270 | 3.0 | 6.0 | 0.00 | 0.32 | 0.00 | 64 | 986.9 |
| 20260506102122 | 63 | 283 | 3.0 | 6.0 | 0.00 | 0.32 | 0.00 | 65 | 987.0 |
| 20260506102022 | 63 | 270 | 5.0 | 6.0 | 0.00 | 0.32 | 0.00 | 65 | 986.7 |
| 20260506101922 | 63 | 270 | 5.0 | 6.0 | 0.00 | 0.32 | 0.00 | 65 | 987.0 |
| 20260506101821 | 63 | 270 | 5.0 | 6.0 | 0.00 | 0.32 | 0.00 | 64 | 986.9 |
| 20260506101721 | 63 | 285 | 1.0 | 6.0 | 0.00 | 0.32 | 0.00 | 65 | 986.9 |
| 20260506101621 | 63 | 287 | 1.0 | 3.0 | 0.00 | 0.32 | 0.00 | 66 | 987.0 |
| 20260506101521 | 63 | 270 | 1.0 | 3.0 | 0.00 | 0.32 | 0.00 | 66 | 987.0 |
| 20260506101421 | 63 | 270 | 2.0 | 5.0 | 0.00 | 0.32 | 0.00 | 67 | 986.9 |
| 20260506101321 | 63 | 270 | 3.0 | 6.0 | 0.00 | 0.32 | 0.00 | 66 | 987.0 |
| 20260506101221 | 64 | 273 | 2.0 | 3.0 | 0.00 | 0.32 | 0.00 | 66 | 987.0 |
| 20260506101121 | 64 | 284 | 2.0 | 3.0 | 0.00 | 0.32 | 0.00 | 67 | 987.0 |
| 20260506101021 | 63 | 280 | 1.0 | 3.0 | 0.00 | 0.32 | 0.00 | 67 | 986.9 |
| 20260506100921 | 63 | 292 | 0.0 | 3.0 | 0.00 | 0.32 | 0.00 | 67 | 987.0 |
| 20260506100821 | 63 | 281 | 1.0 | 3.0 | 0.00 | 0.32 | 0.00 | 67 | 987.0 |
| 20260506100721 | 62 | 252 | 1.0 | 3.0 | 0.00 | 0.32 | 0.00 | 67 | 987.1 |
| 20260506100621 | 62 | 270 | 1.0 | 2.0 | 0.00 | 0.32 | 0.00 | 69 | 987.0 |
| 20260506100521 | 62 | 289 | 1.0 | 2.0 | 0.00 | 0.32 | 0.00 | 70 | 986.9 |
| 20260506100421 | 62 | 289 | 2.0 | 3.0 | 0.00 | 0.32 | 0.00 | 70 | 987.1 |
| 20260506100321 | 62 | 273 | 1.0 | 2.0 | 0.00 | 0.32 | 0.00 | 68 | 987.0 |
| 20260506100221 | 62 | 264 | 1.0 | 2.0 | 0.00 | 0.32 | 0.00 | 69 | 986.9 |
| 20260506100121 | 62 | 268 | 0.0 | 2.0 | 0.00 | 0.32 | 0.00 | 69 | 987.0 |
| 20260506100023 | 61 | 288 | 0.0 | 1.0 | 0.00 | 0.32 | 0.00 | 69 | 987.0 |
| 20260506095923 | 61 | 292 | 0.0 | 2.0 | 0.00 | 0.32 | 0.00 | 70 | 987.0 |
| 20260506095823 | 61 | 291 | 2.0 | 5.0 | 0.00 | 0.32 | 0.00 | 70 | 987.1 |
| 20260506095723 | 61 | 272 | 3.0 | 5.0 | 0.00 | 0.32 | 0.00 | 71 | 987.1 |
| 20260506095623 | 61 | 270 | 3.0 | 7.0 | 0.00 | 0.32 | 0.00 | 71 | 987.0 |
| 20260506095522 | 61 | 262 | 3.0 | 7.0 | 0.00 | 0.32 | 0.00 | 70 | 986.9 |
| 20260506095422 | 61 | 273 | 2.0 | 7.0 | 0.00 | 0.32 | 0.00 | 71 | 987.0 |
| 20260506095322 | 61 | 272 | 3.0 | 7.0 | 0.00 | 0.32 | 0.00 | 71 | 986.9 |
| 20260506095222 | 60 | 266 | 3.0 | 7.0 | 0.00 | 0.32 | 0.00 | 71 | 987.1 |
| 20260506095122 | 60 | 248 | 3.0 | 6.0 | 0.00 | 0.32 | 0.00 | 72 | 987.1 |
| 20260506095022 | 60 | 249 | 3.0 | 5.0 | 0.00 | 0.32 | 0.00 | 71 | 987.0 |
| 20260506094922 | 60 | 331 | 2.0 | 5.0 | 0.00 | 0.32 | 0.00 | 71 | 986.9 |
| 20260506094822 | 60 | 272 | 3.0 | 5.0 | 0.00 | 0.32 | 0.00 | 72 | 987.0 |
| 20260506094722 | 60 | 258 | 3.0 | 6.0 | 0.00 | 0.32 | 0.00 | 72 | 986.9 |
| 20260506094622 | 60 | 270 | 3.0 | 6.0 | 0.00 | 0.32 | 0.00 | 72 | 986.9 |
| 20260506094522 | 60 | 270 | 3.0 | 6.0 | 0.00 | 0.32 | 0.00 | 72 | 986.9 |
| 20260506094422 | 60 | 289 | 3.0 | 6.0 | 0.00 | 0.32 | 0.00 | 72 | 986.8 |
| 20260506094322 | 60 | 292 | 3.0 | 7.0 | 0.00 | 0.32 | 0.00 | 73 | 987.0 |
| 20260506094222 | 61 | 292 | 3.0 | 7.0 | 0.00 | 0.32 | 0.00 | 72 | 987.0 |
| 20260506094122 | 61 | 292 | 3.0 | 6.0 | 0.00 | 0.32 | 0.00 | 72 | 986.9 |
| 20260506094022 | 61 | 292 | 3.0 | 6.0 | 0.00 | 0.32 | 0.00 | 73 | 986.9 |
| 20260506093922 | 61 | 300 | 2.0 | 3.0 | 0.00 | 0.32 | 0.00 | 74 | 987.0 |
| 20260506093822 | 61 | 296 | 2.0 | 5.0 | 0.00 | 0.32 | 0.00 | 74 | 986.9 |
| 20260506093722 | 61 | 292 | 3.0 | 5.0 | 0.00 | 0.32 | 0.00 | 73 | 987.0 |
| 20260506093622 | 61 | 312 | 3.0 | 6.0 | 0.00 | 0.32 | 0.00 | 73 | 986.9 |
| 20260506093522 | 61 | 294 | 3.0 | 6.0 | 0.00 | 0.32 | 0.00 | 72 | 986.9 |
| 20260506093422 | 62 | 270 | 3.0 | 7.0 | 0.00 | 0.32 | 0.00 | 73 | 986.9 |
| 20260506093322 | 62 | 270 | 5.0 | 7.0 | 0.00 | 0.32 | 0.00 | 72 | 986.8 |
| 20260506093222 | 63 | 254 | 3.0 | 7.0 | 0.00 | 0.32 | 0.00 | 71 | 986.9 |
| 20260506093122 | 63 | 296 | 2.0 | 5.0 | 0.00 | 0.32 | 0.00 | 71 | 986.9 |
| 20260506093022 | 63 | 281 | 3.0 | 6.0 | 0.00 | 0.32 | 0.00 | 69 | 986.9 |
| 20260506092922 | 63 | 271 | 3.0 | 7.0 | 0.00 | 0.32 | 0.00 | 67 | 987.0 |
| 20260506092822 | 63 | 306 | 2.0 | 7.0 | 0.00 | 0.32 | 0.00 | 68 | 986.9 |
| 20260506092721 | 63 | 274 | 2.0 | 6.0 | 0.00 | 0.32 | 0.00 | 68 | 986.7 |
| 20260506092621 | 63 | 254 | 3.0 | 6.0 | 0.00 | 0.32 | 0.00 | 68 | 986.8 |
| 20260506092521 | 63 | 263 | 3.0 | 5.0 | 0.00 | 0.32 | 0.00 | 68 | 986.8 |
| 20260506092421 | 63 | 270 | 2.0 | 5.0 | 0.00 | 0.32 | 0.00 | 67 | 986.7 |
| 20260506092321 | 63 | 270 | 3.0 | 7.0 | 0.00 | 0.32 | 0.00 | 67 | 986.9 |
| 20260506092221 | 63 | 287 | 6.0 | 9.0 | 0.00 | 0.32 | 0.00 | 66 | 986.8 |
| 20260506092121 | 63 | 277 | 7.0 | 10.0 | 0.00 | 0.32 | 0.00 | 65 | 986.7 |
| 20260506092021 | 63 | 263 | 2.0 | 10.0 | 0.00 | 0.32 | 0.00 | 68 | 986.8 |
| 20260506091921 | 62 | 326 | 2.0 | 5.0 | 0.00 | 0.32 | 0.00 | 68 | 986.8 |
| 20260506091821 | 62 | 324 | 2.0 | 5.0 | 0.00 | 0.32 | 0.00 | 68 | 986.8 |
| 20260506091721 | 62 | 270 | 2.0 | 6.0 | 0.00 | 0.32 | 0.00 | 67 | 986.7 |
| 20260506091621 | 62 | 272 | 2.0 | 6.0 | 0.00 | 0.32 | 0.00 | 67 | 986.8 |
| 20260506091521 | 62 | 292 | 1.0 | 2.0 | 0.00 | 0.32 | 0.00 | 67 | 986.8 |
| 20260506091421 | 62 | 276 | 1.0 | 3.0 | 0.00 | 0.32 | 0.00 | 67 | 986.7 |
| 20260506091323 | 61 | 288 | 3.0 | 8.0 | 0.00 | 0.32 | 0.00 | 68 | 986.8 |
| 20260506091223 | 61 | 295 | 3.0 | 8.0 | 0.00 | 0.32 | 0.00 | 69 | 986.7 |
| 20260506091123 | 61 | 248 | 5.0 | 8.0 | 0.00 | 0.32 | 0.00 | 68 | 986.8 |
| 20260506091023 | 61 | 266 | 5.0 | 6.0 | 0.00 | 0.32 | 0.00 | 68 | 986.8 |
| 20260506090923 | 61 | 277 | 3.0 | 7.0 | 0.00 | 0.32 | 0.00 | 69 | 986.8 |
| 20260506090823 | 61 | 270 | 3.0 | 7.0 | 0.00 | 0.32 | 0.00 | 68 | 986.8 |
| 20260506090723 | 61 | 270 | 3.0 | 6.0 | 0.00 | 0.32 | 0.00 | 68 | 986.8 |
| 20260506090623 | 61 | 279 | 3.0 | 6.0 | 0.00 | 0.32 | 0.00 | 68 | 986.7 |
| 20260506090522 | 61 | 277 | 3.0 | 6.0 | 0.00 | 0.32 | 0.00 | 68 | 986.6 |
| 20260506090422 | 61 | 263 | 3.0 | 6.0 | 0.00 | 0.32 | 0.00 | 68 | 986.7 |
| 20260506090322 | 61 | 248 | 3.0 | 7.0 | 0.00 | 0.32 | 0.00 | 68 | 986.7 |
| 20260506090222 | 61 | 258 | 3.0 | 7.0 | 0.00 | 0.32 | 0.00 | 68 | 986.8 |
| 20260506090122 | 61 | 271 | 2.0 | 7.0 | 0.00 | 0.32 | 0.00 | 69 | 986.8 |
| 20260506090022 | 61 | 273 | 2.0 | 7.0 | 0.00 | 0.32 | 0.00 | 69 | 986.7 |
| 20260506085922 | 62 | 260 | 3.0 | 7.0 | 0.00 | 0.32 | 0.00 | 68 | 986.5 |
| 20260506085822 | 62 | 270 | 3.0 | 7.0 | 0.00 | 0.32 | 0.00 | 68 | 986.6 |
| 20260506085722 | 61 | 322 | 2.0 | 7.0 | 0.00 | 0.32 | 0.00 | 69 | 986.7 |
| 20260506085622 | 61 | 249 | 2.0 | 9.0 | 0.00 | 0.32 | 0.00 | 69 | 986.7 |
| 20260506085522 | 61 | 259 | 2.0 | 9.0 | 0.00 | 0.32 | 0.00 | 69 | 986.6 |
| 20260506085422 | 61 | 270 | 2.0 | 6.0 | 0.00 | 0.32 | 0.00 | 69 | 986.6 |
| 20260506085322 | 61 | 284 | 2.0 | 6.0 | 0.00 | 0.32 | 0.00 | 69 | 986.7 |
| 20260506085222 | 62 | 270 | 2.0 | 6.0 | 0.00 | 0.32 | 0.00 | 70 | 986.6 |
| 20260506085122 | 62 | 270 | 3.0 | 6.0 | 0.00 | 0.32 | 0.00 | 69 | 986.6 |
| 20260506085022 | 63 | 270 | 2.0 | 6.0 | 0.00 | 0.32 | 0.00 | 68 | 986.5 |
| 20260506084922 | 63 | 270 | 1.0 | 6.0 | 0.00 | 0.32 | 0.00 | 69 | 986.5 |
| 20260506084822 | 63 | 270 | 3.0 | 8.0 | 0.00 | 0.32 | 0.00 | 68 | 986.5 |
| 20260506084722 | 63 | 270 | 3.0 | 8.0 | 0.00 | 0.32 | 0.00 | 68 | 986.6 |
| 20260506084622 | 63 | 270 | 3.0 | 7.0 | 0.00 | 0.32 | 0.00 | 69 | 986.6 |
| 20260506084522 | 63 | 270 | 2.0 | 5.0 | 0.00 | 0.32 | 0.00 | 69 | 986.5 |
| 20260506084421 | 63 | 282 | 2.0 | 3.0 | 0.00 | 0.32 | 0.00 | 69 | 986.5 |
| 20260506084321 | 63 | 308 | 1.0 | 3.0 | 0.00 | 0.32 | 0.00 | 70 | 986.5 |
| 20260506084221 | 62 | 300 | 1.0 | 3.0 | 0.00 | 0.32 | 0.00 | 69 | 986.6 |
| 20260506084121 | 62 | 285 | 2.0 | 5.0 | 0.00 | 0.32 | 0.00 | 70 | 986.5 |
| 20260506084022 | 61 | 271 | 3.0 | 5.0 | 0.00 | 0.32 | 0.00 | 71 | 986.5 |
| 20260506083921 | 61 | 300 | 3.0 | 6.0 | 0.00 | 0.32 | 0.00 | 71 | 986.5 |
| 20260506083821 | 61 | 270 | 3.0 | 6.0 | 0.00 | 0.32 | 0.00 | 71 | 986.4 |
| 20260506083721 | 60 | 253 | 5.0 | 7.0 | 0.00 | 0.32 | 0.00 | 71 | 986.4 |
| 20260506083621 | 60 | 280 | 2.0 | 5.0 | 0.00 | 0.32 | 0.00 | 72 | 986.4 |
| 20260506083521 | 60 | 287 | 2.0 | 5.0 | 0.00 | 0.32 | 0.00 | 72 | 986.4 |
| 20260506083421 | 60 | 256 | 2.0 | 7.0 | 0.00 | 0.32 | 0.00 | 73 | 986.4 |
| 20260506083321 | 60 | 269 | 5.0 | 7.0 | 0.00 | 0.32 | 0.00 | 72 | 986.3 |
| 20260506083221 | 61 | 291 | 3.0 | 6.0 | 0.00 | 0.32 | 0.00 | 72 | 986.3 |
| 20260506083121 | 61 | 271 | 2.0 | 6.0 | 0.00 | 0.32 | 0.00 | 71 | 986.3 |
| 20260506083021 | 61 | 284 | 2.0 | 6.0 | 0.00 | 0.32 | 0.00 | 71 | 986.4 |
| 20260506082923 | 61 | 265 | 3.0 | 7.0 | 0.00 | 0.32 | 0.00 | 71 | 986.4 |
| 20260506082823 | 61 | 290 | 3.0 | 7.0 | 0.00 | 0.32 | 0.00 | 70 | 986.3 |
| 20260506082723 | 61 | 277 | 2.0 | 7.0 | 0.00 | 0.32 | 0.00 | 70 | 986.2 |
| 20260506082623 | 61 | 292 | 3.0 | 7.0 | 0.00 | 0.32 | 0.00 | 71 | 986.4 |
| 20260506082523 | 61 | 274 | 3.0 | 7.0 | 0.00 | 0.32 | 0.00 | 70 | 986.3 |
| 20260506082423 | 61 | 272 | 5.0 | 8.0 | 0.00 | 0.32 | 0.00 | 71 | 986.2 |
| 20260506082323 | 61 | 292 | 5.0 | 8.0 | 0.00 | 0.32 | 0.00 | 71 | 986.3 |
| 20260506082223 | 61 | 280 | 5.0 | 8.0 | 0.00 | 0.32 | 0.00 | 71 | 986.3 |
| 20260506082123 | 61 | 295 | 3.0 | 8.0 | 0.00 | 0.32 | 0.00 | 72 | 986.2 |
| 20260506082023 | 61 | 313 | 6.0 | 8.0 | 0.00 | 0.32 | 0.00 | 72 | 986.1 |
| 20260506081922 | 61 | 285 | 3.0 | 8.0 | 0.00 | 0.32 | 0.00 | 71 | 986.3 |
| 20260506081822 | 61 | 254 | 5.0 | 8.0 | 0.00 | 0.32 | 0.00 | 71 | 986.3 |
| 20260506081722 | 61 | 265 | 5.0 | 8.0 | 0.00 | 0.32 | 0.00 | 71 | 986.2 |
| 20260506081622 | 60 | 270 | 2.0 | 5.0 | 0.00 | 0.32 | 0.00 | 71 | 986.4 |
| 20260506081522 | 60 | 270 | 2.0 | 5.0 | 0.00 | 0.32 | 0.00 | 71 | 986.3 |
| 20260506081422 | 60 | 270 | 2.0 | 6.0 | 0.00 | 0.32 | 0.00 | 71 | 986.2 |
| 20260506081322 | 60 | 281 | 2.0 | 6.0 | 0.00 | 0.32 | 0.00 | 72 | 986.3 |
| 20260506081222 | 60 | 279 | 3.0 | 6.0 | 0.00 | 0.32 | 0.00 | 72 | 986.3 |
| 20260506081122 | 60 | 292 | 5.0 | 7.0 | 0.00 | 0.33 | 0.00 | 71 | 986.3 |
| 20260506081022 | 61 | 280 | 6.0 | 8.0 | 0.00 | 0.33 | 0.00 | 71 | 986.4 |
| 20260506080922 | 61 | 270 | 5.0 | 8.0 | 0.00 | 0.33 | 0.00 | 70 | 986.4 |
| 20260506080822 | 61 | 270 | 3.0 | 7.0 | 0.00 | 0.33 | 0.00 | 71 | 986.3 |
| 20260506080722 | 62 | 315 | 2.0 | 5.0 | 0.00 | 0.33 | 0.00 | 70 | 986.3 |
| 20260506080622 | 62 | 327 | 2.0 | 5.0 | 0.00 | 0.33 | 0.00 | 69 | 986.3 |
| 20260506080522 | 62 | 288 | 2.0 | 5.0 | 0.00 | 0.33 | 0.00 | 68 | 986.2 |
| 20260506080422 | 62 | 292 | 1.0 | 2.0 | 0.00 | 0.33 | 0.00 | 67 | 986.4 |
| 20260506080322 | 62 | 25 | 1.0 | 5.0 | 0.00 | 0.33 | 0.00 | 68 | 986.3 |
| 20260506080222 | 61 | 307 | 2.0 | 6.0 | 0.00 | 0.33 | 0.00 | 68 | 986.3 |
| 20260506080122 | 61 | 330 | 2.0 | 6.0 | 0.00 | 0.33 | 0.00 | 69 | 986.4 |
| 20260506073523 | 60 | 278 | 5.0 | 8.0 | 0.00 | 0.33 | 0.00 | 71 | 986.4 |
| 20260506073423 | 60 | 292 | 2.0 | 8.0 | 0.00 | 0.33 | 0.00 | 72 | 986.2 |
| 20260506073322 | 60 | 292 | 2.0 | 5.0 | 0.00 | 0.33 | 0.00 | 72 | 986.2 |
| 20260506073222 | 60 | 272 | 3.0 | 6.0 | 0.00 | 0.33 | 0.00 | 72 | 986.0 |
| 20260506073122 | 61 | 270 | 3.0 | 6.0 | 0.00 | 0.33 | 0.00 | 71 | 986.1 |
| 20260506073022 | 61 | 270 | 3.0 | 5.0 | 0.00 | 0.33 | 0.00 | 70 | 986.2 |
| 20260506072922 | 61 | 270 | 2.0 | 5.0 | 0.00 | 0.33 | 0.00 | 70 | 986.1 |
| 20260506072822 | 62 | 316 | 1.0 | 2.0 | 0.00 | 0.33 | 0.00 | 69 | 986.1 |
| 20260506072722 | 62 | 299 | 1.0 | 2.0 | 0.00 | 0.33 | 0.00 | 69 | 986.1 |
| 20260506072622 | 63 | 275 | 0.0 | 2.0 | 0.00 | 0.33 | 0.00 | 69 | 986.2 |
| 20260506072522 | 63 | 292 | 1.0 | 3.0 | 0.00 | 0.33 | 0.00 | 68 | 986.3 |
| 20260506072422 | 63 | 281 | 1.0 | 3.0 | 0.00 | 0.33 | 0.00 | 66 | 986.2 |
| 20260506072322 | 64 | 57 | 0.0 | 1.0 | 0.00 | 0.33 | 0.00 | 66 | 986.2 |
| 20260506072222 | 64 | 105 | 0.0 | 1.0 | 0.00 | 0.33 | 0.00 | 64 | 986.3 |
| 20260506072122 | 63 | 50 | 0.0 | 1.0 | 0.00 | 0.33 | 0.00 | 64 | 986.3 |
| 20260506072022 | 63 | 336 | 0.0 | 1.0 | 0.00 | 0.33 | 0.00 | 65 | 986.4 |
| 20260506071922 | 63 | 134 | 0.0 | 1.0 | 0.00 | 0.33 | 0.00 | 64 | 986.2 |
| 20260506071822 | 63 | 247 | 0.0 | 1.0 | 0.00 | 0.33 | 0.00 | 66 | 986.2 |
| 20260506071722 | 63 | 256 | 0.0 | 1.0 | 0.00 | 0.33 | 0.00 | 65 | 986.2 |
| 20260506071622 | 63 | 75 | 0.0 | 1.0 | 0.00 | 0.33 | 0.00 | 65 | 986.2 |
| 20260506071522 | 62 | 115 | 0.0 | 2.0 | 0.00 | 0.33 | 0.00 | 66 | 986.3 |
| 20260506071422 | 62 | 299 | 0.0 | 2.0 | 0.00 | 0.33 | 0.00 | 66 | 986.2 |
| 20260506071322 | 62 | 336 | 0.0 | 1.0 | 0.00 | 0.33 | 0.00 | 67 | 986.2 |
| 20260506071221 | 62 | 299 | 0.0 | 1.0 | 0.00 | 0.33 | 0.00 | 66 | 986.3 |
| 20260506071121 | 62 | 22 | 0.0 | 0.0 | 0.00 | 0.33 | 0.00 | 66 | 986.2 |
| 20260506071021 | 62 | 355 | 0.0 | 0.0 | 0.00 | 0.33 | 0.00 | 66 | 986.2 |
| 20260506070921 | 62 | 62 | 0.0 | 1.0 | 0.00 | 0.33 | 0.00 | 67 | 986.3 |
| 20260506070821 | 62 | 94 | 0.0 | 1.0 | 0.00 | 0.33 | 0.00 | 68 | 986.3 |
| 20260506070721 | 62 | 27 | 0.0 | 1.0 | 0.00 | 0.33 | 0.00 | 68 | 986.3 |
| 20260506070621 | 61 | 74 | 0.0 | 2.0 | 0.00 | 0.33 | 0.00 | 68 | 986.3 |
| 20260506070521 | 61 | 276 | 0.0 | 3.0 | 0.00 | 0.33 | 0.00 | 68 | 986.1 |
| 20260506070421 | 61 | 245 | 0.0 | 3.0 | 0.00 | 0.33 | 0.00 | 67 | 986.3 |
| 20260506070321 | 61 | 255 | 0.0 | 1.0 | 0.00 | 0.33 | 0.00 | 69 | 986.3 |
| 20260506070221 | 61 | 325 | 0.0 | 1.0 | 0.00 | 0.33 | 0.00 | 69 | 986.2 |
| 20260506070121 | 61 | 338 | 0.0 | 0.0 | 0.00 | 0.33 | 0.00 | 68 | 986.0 |
| 20260506062421 | 60 | 241 | 0.0 | 1.0 | 0.00 | 0.33 | 0.00 | 73 | 986.0 |
| 20260506062321 | 60 | 130 | 0.0 | 1.0 | 0.00 | 0.33 | 0.00 | 73 | 986.1 |
| 20260506062221 | 59 | 129 | 0.0 | 1.0 | 0.00 | 0.33 | 0.00 | 75 | 986.1 |
| 20260506062121 | 59 | 86 | 0.0 | 0.0 | 0.00 | 0.33 | 0.00 | 75 | 986.3 |
| 20260506062021 | 59 | 112 | 0.0 | 1.0 | 0.00 | 0.33 | 0.00 | 76 | 986.3 |
| 20260506061921 | 58 | 112 | 0.0 | 1.0 | 0.00 | 0.33 | 0.00 | 75 | 986.2 |
| 20260506061821 | 58 | 247 | 0.0 | 1.0 | 0.00 | 0.33 | 0.00 | 76 | 986.3 |
| 20260506061721 | 57 | 64 | 0.0 | 1.0 | 0.00 | 0.33 | 0.00 | 80 | 986.2 |
| 20260506061621 | 57 | 68 | 0.0 | 0.0 | 0.00 | 0.33 | 0.00 | 81 | 986.2 |
| 20260506061521 | 57 | 68 | 0.0 | 0.0 | 0.00 | 0.33 | 0.00 | 81 | 986.2 |
| 20260506061421 | 57 | 68 | 0.0 | 0.0 | 0.00 | 0.33 | 0.00 | 81 | 986.2 |
| 20260506061321 | 57 | 68 | 0.0 | 0.0 | 0.00 | 0.33 | 0.00 | 81 | 986.2 |
| 20260506061221 | 57 | 68 | 0.0 | 0.0 | 0.00 | 0.33 | 0.00 | 81 | 986.1 |
| 20260506061121 | 57 | 77 | 0.0 | 0.0 | 0.00 | 0.33 | 0.00 | 81 | 986.2 |
| 20260506061023 | 57 | 8 | 0.0 | 0.0 | 0.00 | 0.33 | 0.00 | 81 | 986.2 |
| 20260506060923 | 56 | 338 | 0.0 | 0.0 | 0.00 | 0.33 | 0.00 | 81 | 986.1 |
| 20260506060823 | 56 | 338 | 0.0 | 0.0 | 0.00 | 0.33 | 0.00 | 81 | 986.3 |
| 20260506060723 | 56 | 338 | 0.0 | 0.0 | 0.00 | 0.33 | 0.00 | 81 | 986.1 |
| 20260506060623 | 56 | 306 | 0.0 | 0.0 | 0.00 | 0.33 | 0.00 | 81 | 986.2 |
| 20260506060523 | 55 | 272 | 0.0 | 0.0 | 0.00 | 0.33 | 0.00 | 83 | 986.2 |
| 20260506060422 | 55 | 270 | 0.0 | 0.0 | 0.00 | 0.33 | 0.00 | 83 | 986.2 |
| 20260506060322 | 55 | 270 | 0.0 | 0.0 | 0.00 | 0.33 | 0.00 | 83 | 986.2 |
| 20260506060222 | 55 | 270 | 0.0 | 0.0 | 0.00 | 0.33 | 0.00 | 83 | 986.1 |
| 20260506060122 | 55 | 270 | 0.0 | 0.0 | 0.00 | 0.33 | 0.00 | 83 | 986.1 |
| 20260506051322 | 50 | 292 | 0.0 | 0.0 | 0.00 | 0.33 | 0.00 | 90 | 986.4 |
| 20260506051222 | 50 | 292 | 0.0 | 0.0 | 0.00 | 0.33 | 0.00 | 90 | 986.4 |
| 20260506051122 | 50 | 292 | 0.0 | 0.0 | 0.00 | 0.33 | 0.00 | 90 | 986.4 |
| 20260506051022 | 50 | 292 | 0.0 | 0.0 | 0.00 | 0.33 | 0.00 | 89 | 986.5 |
| 20260506050922 | 51 | 278 | 0.0 | 0.0 | 0.00 | 0.33 | 0.00 | 89 | 986.4 |
| 20260506050822 | 51 | 284 | 0.0 | 0.0 | 0.00 | 0.33 | 0.00 | 90 | 986.4 |
| 20260506050722 | 51 | 212 | 0.0 | 0.0 | 0.00 | 0.33 | 0.00 | 90 | 986.5 |
| 20260506050622 | 50 | 135 | 0.0 | 0.0 | 0.00 | 0.33 | 0.00 | 90 | 986.5 |
| 20260506050522 | 50 | 197 | 0.0 | 0.0 | 0.00 | 0.33 | 0.00 | 90 | 986.4 |
| 20260506050422 | 50 | 265 | 0.0 | 0.0 | 0.00 | 0.33 | 0.00 | 89 | 986.4 |
| 20260506050322 | 50 | 270 | 0.0 | 0.0 | 0.00 | 0.33 | 0.00 | 89 | 986.4 |
| 20260506050222 | 50 | 270 | 0.0 | 0.0 | 0.00 | 0.33 | 0.00 | 89 | 986.4 |
| 20260506050122 | 50 | 270 | 0.0 | 0.0 | 0.00 | 0.33 | 0.00 | 89 | 986.4 |
| 20260506045121 | 50 | 281 | 0.0 | 1.0 | 0.00 | 0.33 | 0.00 | 89 | 986.4 |
| 20260506045021 | 50 | 292 | 0.0 | 2.0 | 0.00 | 0.33 | 0.00 | 89 | 986.5 |
| 20260506044921 | 50 | 277 | 0.0 | 2.0 | 0.00 | 0.33 | 0.00 | 89 | 986.5 |
| 20260506044821 | 50 | 333 | 0.0 | 2.0 | 0.00 | 0.33 | 0.00 | 89 | 986.3 |
| 20260506044721 | 50 | 338 | 0.0 | 0.0 | 0.00 | 0.33 | 0.00 | 89 | 986.3 |
| 20260506044621 | 50 | 338 | 0.0 | 0.0 | 0.00 | 0.33 | 0.00 | 89 | 986.3 |
| 20260506044521 | 50 | 338 | 0.0 | 0.0 | 0.00 | 0.33 | 0.00 | 90 | 986.3 |
| 20260506044423 | 50 | 338 | 0.0 | 0.0 | 0.00 | 0.33 | 0.00 | 89 | 986.5 |
| 20260506044323 | 50 | 338 | 0.0 | 0.0 | 0.00 | 0.33 | 0.00 | 88 | 986.5 |
| 20260506044223 | 50 | 338 | 0.0 | 0.0 | 0.00 | 0.33 | 0.00 | 88 | 986.5 |
| 20260506044123 | 50 | 338 | 0.0 | 0.0 | 0.00 | 0.33 | 0.00 | 88 | 986.6 |
| 20260506044023 | 50 | 338 | 0.0 | 0.0 | 0.00 | 0.33 | 0.00 | 88 | 986.5 |
| 20260506043923 | 51 | 338 | 0.0 | 0.0 | 0.00 | 0.33 | 0.00 | 88 | 986.5 |
| 20260506043822 | 51 | 338 | 0.0 | 0.0 | 0.00 | 0.33 | 0.00 | 88 | 986.5 |
| 20260506043722 | 51 | 353 | 0.0 | 0.0 | 0.00 | 0.33 | 0.00 | 87 | 986.5 |
| 20260506043622 | 52 | 24 | 0.0 | 0.0 | 0.00 | 0.33 | 0.00 | 87 | 986.4 |
| 20260506043522 | 52 | 135 | 0.0 | 0.0 | 0.00 | 0.33 | 0.00 | 86 | 986.5 |
| 20260506043422 | 52 | 135 | 0.0 | 0.0 | 0.00 | 0.33 | 0.00 | 86 | 986.5 |
| 20260506043322 | 52 | 135 | 0.0 | 1.0 | 0.00 | 0.33 | 0.00 | 87 | 986.5 |
| 20260506043222 | 52 | 135 | 0.0 | 1.0 | 0.00 | 0.33 | 0.00 | 87 | 986.5 |
| 20260506043122 | 52 | 135 | 0.0 | 1.0 | 0.00 | 0.33 | 0.00 | 87 | 986.5 |
| 20260506043022 | 52 | 145 | 0.0 | 1.0 | 0.00 | 0.33 | 0.00 | 87 | 986.5 |
| 20260506042922 | 51 | 158 | 1.0 | 2.0 | 0.00 | 0.33 | 0.00 | 87 | 986.5 |
| 20260506042822 | 51 | 151 | 1.0 | 2.0 | 0.00 | 0.33 | 0.00 | 87 | 986.5 |
| 20260506042722 | 51 | 127 | 1.0 | 2.0 | 0.00 | 0.33 | 0.00 | 88 | 986.6 |
| 20260506042622 | 51 | 127 | 1.0 | 2.0 | 0.00 | 0.33 | 0.00 | 88 | 986.6 |
| 20260506042522 | 51 | 135 | 1.0 | 2.0 | 0.00 | 0.33 | 0.00 | 89 | 986.4 |
| 20260506042422 | 51 | 135 | 0.0 | 2.0 | 0.00 | 0.33 | 0.00 | 89 | 986.6 |
| 20260506042322 | 51 | 122 | 0.0 | 1.0 | 0.00 | 0.33 | 0.00 | 89 | 986.7 |
| 20260506042222 | 51 | 122 | 0.0 | 1.0 | 0.00 | 0.33 | 0.00 | 89 | 986.7 |
| 20260506042122 | 51 | 135 | 0.0 | 2.0 | 0.00 | 0.33 | 0.00 | 89 | 986.7 |
| 20260506042022 | 51 | 135 | 0.0 | 2.0 | 0.00 | 0.33 | 0.00 | 89 | 986.6 |
| 20260506041922 | 51 | 186 | 0.0 | 1.0 | 0.00 | 0.33 | 0.00 | 89 | 986.5 |
| 20260506041822 | 51 | 236 | 0.0 | 1.0 | 0.00 | 0.33 | 0.00 | 89 | 986.5 |
| 20260506041722 | 50 | 223 | 0.0 | 1.0 | 0.00 | 0.33 | 0.00 | 89 | 986.5 |
| 20260506041622 | 50 | 239 | 0.0 | 1.0 | 0.00 | 0.33 | 0.00 | 89 | 986.6 |
| 20260506041521 | 51 | 270 | 0.0 | 1.0 | 0.00 | 0.33 | 0.00 | 87 | 986.8 |
| 20260506041421 | 51 | 270 | 1.0 | 1.0 | 0.00 | 0.33 | 0.00 | 87 | 986.7 |
| 20260506041321 | 51 | 194 | 0.0 | 1.0 | 0.00 | 0.33 | 0.00 | 88 | 986.6 |
| 20260506041221 | 51 | 180 | 0.0 | 0.0 | 0.00 | 0.33 | 0.00 | 88 | 986.4 |
| 20260506041121 | 51 | 180 | 0.0 | 0.0 | 0.00 | 0.33 | 0.00 | 88 | 986.5 |
| 20260506041021 | 51 | 180 | 0.0 | 1.0 | 0.00 | 0.33 | 0.00 | 88 | 986.5 |
| 20260506040921 | 51 | 180 | 0.0 | 1.0 | 0.00 | 0.33 | 0.00 | 88 | 986.4 |
| 20260506040821 | 52 | 180 | 0.0 | 0.0 | 0.00 | 0.33 | 0.00 | 88 | 986.5 |
| 20260506040721 | 52 | 180 | 0.0 | 0.0 | 0.00 | 0.33 | 0.00 | 88 | 986.3 |
| 20260506040621 | 52 | 180 | 0.0 | 0.0 | 0.00 | 0.33 | 0.00 | 88 | 986.3 |
| 20260506040521 | 52 | 180 | 0.0 | 0.0 | 0.00 | 0.33 | 0.00 | 88 | 986.5 |
| 20260506040421 | 52 | 180 | 0.0 | 0.0 | 0.00 | 0.33 | 0.00 | 88 | 986.5 |
| 20260506040321 | 52 | 180 | 0.0 | 0.0 | 0.00 | 0.33 | 0.00 | 88 | 986.5 |
| 20260506040221 | 52 | 180 | 0.0 | 0.0 | 0.00 | 0.33 | 0.00 | 87 | 986.4 |
| 20260506040121 | 52 | 180 | 0.0 | 1.0 | 0.00 | 0.33 | 0.00 | 87 | 986.4 |
| 20260506040021 | 52 | 180 | 0.0 | 1.0 | 0.00 | 0.33 | 0.00 | 87 | 986.5 |
| 20260506035923 | 52 | 180 | 0.0 | 1.0 | 0.00 | 0.33 | 0.00 | 87 | 986.5 |
| 20260506035823 | 52 | 180 | 0.0 | 1.0 | 0.00 | 0.33 | 0.00 | 87 | 986.4 |
| 20260506035723 | 51 | 200 | 0.0 | 1.0 | 0.00 | 0.33 | 0.00 | 86 | 986.4 |
| 20260506035623 | 51 | 291 | 0.0 | 1.0 | 0.00 | 0.33 | 0.00 | 85 | 986.4 |
| 20260506035523 | 51 | 292 | 0.0 | 0.0 | 0.00 | 0.33 | 0.00 | 85 | 986.4 |
| 20260506035423 | 51 | 292 | 0.0 | 0.0 | 0.00 | 0.33 | 0.00 | 85 | 986.4 |
| 20260506035323 | 51 | 292 | 0.0 | 0.0 | 0.00 | 0.33 | 0.00 | 85 | 986.3 |
| 20260506035222 | 52 | 292 | 0.0 | 1.0 | 0.00 | 0.33 | 0.00 | 84 | 986.5 |
| 20260506035122 | 52 | 298 | 1.0 | 1.0 | 0.00 | 0.33 | 0.00 | 84 | 986.4 |
| 20260506035022 | 53 | 303 | 1.0 | 1.0 | 0.00 | 0.33 | 0.00 | 83 | 986.4 |
| 20260506034922 | 53 | 290 | 0.0 | 1.0 | 0.00 | 0.33 | 0.00 | 82 | 986.4 |
| 20260506034822 | 53 | 249 | 0.0 | 1.0 | 0.00 | 0.33 | 0.00 | 82 | 986.5 |
| 20260506034722 | 54 | 118 | 0.0 | 0.0 | 0.00 | 0.33 | 0.00 | 81 | 986.6 |
| 20260506034622 | 54 | 135 | 0.0 | 0.0 | 0.00 | 0.33 | 0.00 | 81 | 986.4 |
| 20260506034522 | 54 | 135 | 0.0 | 0.0 | 0.00 | 0.33 | 0.00 | 81 | 986.5 |
| 20260506034422 | 54 | 135 | 0.0 | 2.0 | 0.00 | 0.33 | 0.00 | 80 | 986.4 |
| 20260506034322 | 54 | 135 | 1.0 | 2.0 | 0.00 | 0.33 | 0.00 | 80 | 986.3 |
| 20260506034222 | 54 | 135 | 1.0 | 2.0 | 0.00 | 0.33 | 0.00 | 81 | 986.4 |
| 20260506034122 | 54 | 135 | 1.0 | 2.0 | 0.00 | 0.33 | 0.00 | 81 | 986.4 |
| 20260506034022 | 54 | 127 | 0.0 | 2.0 | 0.00 | 0.33 | 0.00 | 80 | 986.4 |
| 20260506033922 | 54 | 112 | 0.0 | 2.0 | 0.00 | 0.33 | 0.00 | 80 | 986.5 |
| 20260506033822 | 54 | 112 | 1.0 | 2.0 | 0.00 | 0.33 | 0.00 | 81 | 986.4 |
| 20260506033722 | 54 | 112 | 0.0 | 0.0 | 0.00 | 0.33 | 0.00 | 81 | 986.4 |
| 20260506033622 | 54 | 122 | 0.0 | 2.0 | 0.00 | 0.33 | 0.00 | 81 | 986.4 |
| 20260506033522 | 54 | 142 | 1.0 | 2.0 | 0.00 | 0.33 | 0.00 | 81 | 986.5 |
| 20260506033422 | 54 | 144 | 1.0 | 2.0 | 0.00 | 0.33 | 0.00 | 83 | 986.4 |
| 20260506033322 | 54 | 130 | 1.0 | 2.0 | 0.00 | 0.33 | 0.00 | 82 | 986.4 |
| 20260506033222 | 54 | 151 | 1.0 | 3.0 | 0.00 | 0.33 | 0.00 | 82 | 986.3 |
| 20260506033122 | 54 | 157 | 1.0 | 3.0 | 0.00 | 0.33 | 0.00 | 81 | 986.4 |
| 20260506033022 | 54 | 104 | 1.0 | 3.0 | 0.00 | 0.33 | 0.00 | 80 | 986.4 |
| 20260506032921 | 54 | 118 | 0.0 | 1.0 | 0.00 | 0.33 | 0.00 | 80 | 986.4 |
| 20260506032821 | 54 | 142 | 1.0 | 1.0 | 0.00 | 0.33 | 0.00 | 80 | 986.4 |
| 20260506032721 | 54 | 145 | 1.0 | 1.0 | 0.00 | 0.33 | 0.00 | 80 | 986.5 |
| 20260506032621 | 54 | 112 | 1.0 | 2.0 | 0.00 | 0.33 | 0.00 | 81 | 986.6 |
| 20260506032521 | 54 | 127 | 1.0 | 2.0 | 0.00 | 0.33 | 0.00 | 80 | 986.5 |
| 20260506032421 | 54 | 112 | 0.0 | 2.0 | 0.00 | 0.33 | 0.00 | 81 | 986.5 |
| 20260506032321 | 54 | 112 | 0.0 | 1.0 | 0.00 | 0.33 | 0.00 | 81 | 986.5 |
| 20260506032221 | 54 | 112 | 0.0 | 2.0 | 0.00 | 0.33 | 0.00 | 82 | 986.5 |
| 20260506032121 | 54 | 127 | 1.0 | 2.0 | 0.00 | 0.33 | 0.00 | 81 | 986.5 |
| 20260506032021 | 54 | 120 | 1.0 | 1.0 | 0.00 | 0.33 | 0.00 | 81 | 986.5 |
| 20260506031921 | 54 | 135 | 1.0 | 1.0 | 0.00 | 0.33 | 0.00 | 82 | 986.4 |
| 20260506031821 | 54 | 135 | 1.0 | 2.0 | 0.00 | 0.33 | 0.00 | 82 | 986.4 |
| 20260506031721 | 54 | 119 | 1.0 | 2.0 | 0.00 | 0.33 | 0.00 | 82 | 986.5 |
| 20260506031621 | 54 | 127 | 1.0 | 1.0 | 0.00 | 0.33 | 0.00 | 83 | 986.4 |
| 20260506031521 | 54 | 120 | 1.0 | 1.0 | 0.00 | 0.33 | 0.00 | 83 | 986.5 |
| 20260506031423 | 54 | 135 | 0.0 | 1.0 | 0.00 | 0.33 | 0.00 | 82 | 986.6 |
| 20260506031323 | 54 | 139 | 0.0 | 2.0 | 0.00 | 0.33 | 0.00 | 82 | 986.5 |
| 20260506031223 | 55 | 141 | 1.0 | 2.0 | 0.00 | 0.33 | 0.00 | 82 | 986.6 |
| 20260506031123 | 55 | 112 | 1.0 | 2.0 | 0.00 | 0.33 | 0.00 | 81 | 986.6 |
| 20260506031023 | 55 | 125 | 0.0 | 1.0 | 0.00 | 0.33 | 0.00 | 80 | 986.6 |
| 20260506030923 | 55 | 119 | 0.0 | 2.0 | 0.00 | 0.33 | 0.00 | 79 | 986.5 |
| 20260506030823 | 54 | 112 | 0.0 | 2.0 | 0.00 | 0.33 | 0.00 | 79 | 986.6 |
| 20260506030722 | 54 | 112 | 0.0 | 1.0 | 0.00 | 0.33 | 0.00 | 80 | 986.5 |
| 20260506030622 | 54 | 126 | 1.0 | 2.0 | 0.00 | 0.33 | 0.00 | 79 | 986.6 |
| 20260506030522 | 54 | 119 | 1.0 | 2.0 | 0.00 | 0.33 | 0.00 | 81 | 986.6 |
| 20260506030422 | 54 | 135 | 1.0 | 2.0 | 0.00 | 0.33 | 0.00 | 81 | 986.6 |
| 20260506030322 | 54 | 129 | 1.0 | 2.0 | 0.00 | 0.33 | 0.00 | 82 | 986.5 |
| 20260506030222 | 54 | 112 | 0.0 | 0.0 | 0.00 | 0.33 | 0.00 | 82 | 986.8 |
| 20260506030122 | 55 | 130 | 0.0 | 1.0 | 0.00 | 0.33 | 0.00 | 82 | 986.7 |
| 20260506030022 | 55 | 126 | 0.0 | 1.0 | 0.00 | 0.33 | 0.00 | 82 | 986.7 |
| 20260506025922 | 55 | 85 | 0.0 | 1.0 | 0.00 | 0.33 | 0.00 | 81 | 986.6 |
| 20260506025822 | 55 | 75 | 0.0 | 1.0 | 0.00 | 0.33 | 0.00 | 80 | 986.8 |
| 20260506025722 | 55 | 116 | 0.0 | 1.0 | 0.00 | 0.33 | 0.00 | 80 | 986.8 |
| 20260506025622 | 55 | 135 | 0.0 | 0.0 | 0.00 | 0.33 | 0.00 | 79 | 986.7 |
| 20260506025522 | 55 | 135 | 0.0 | 1.0 | 0.00 | 0.33 | 0.00 | 79 | 986.8 |
| 20260506025422 | 55 | 125 | 0.0 | 1.0 | 0.00 | 0.33 | 0.00 | 79 | 986.8 |
| 20260506025322 | 55 | 106 | 0.0 | 2.0 | 0.00 | 0.33 | 0.00 | 79 | 986.9 |
| 20260506025222 | 55 | 90 | 0.0 | 2.0 | 0.00 | 0.33 | 0.00 | 79 | 986.8 |
| 20260506025122 | 55 | 100 | 0.0 | 2.0 | 0.00 | 0.33 | 0.00 | 79 | 986.8 |
| 20260506025022 | 55 | 112 | 0.0 | 0.0 | 0.00 | 0.33 | 0.00 | 79 | 987.0 |
| 20260506024922 | 55 | 112 | 0.0 | 1.0 | 0.00 | 0.33 | 0.00 | 79 | 986.9 |
| 20260506024822 | 55 | 112 | 0.0 | 1.0 | 0.00 | 0.33 | 0.00 | 79 | 986.8 |
| 20260506024722 | 55 | 112 | 0.0 | 1.0 | 0.00 | 0.33 | 0.00 | 80 | 986.8 |
| 20260506024622 | 55 | 112 | 0.0 | 0.0 | 0.00 | 0.33 | 0.00 | 81 | 987.0 |
| 20260506024522 | 55 | 112 | 0.0 | 0.0 | 0.00 | 0.33 | 0.00 | 80 | 986.9 |
| 20260506024422 | 55 | 112 | 0.0 | 0.0 | 0.00 | 0.33 | 0.00 | 79 | 986.9 |
| 20260506024322 | 55 | 112 | 0.0 | 1.0 | 0.00 | 0.33 | 0.00 | 79 | 986.8 |
| 20260506024221 | 56 | 99 | 0.0 | 1.0 | 0.00 | 0.33 | 0.00 | 79 | 986.7 |
| 20260506024121 | 56 | 119 | 0.0 | 1.0 | 0.00 | 0.33 | 0.00 | 79 | 986.8 |
| 20260506024021 | 56 | 109 | 1.0 | 1.0 | 0.00 | 0.33 | 0.00 | 79 | 987.0 |
| 20260506023921 | 56 | 105 | 0.0 | 1.0 | 0.00 | 0.33 | 0.00 | 79 | 986.9 |
| 20260506023821 | 56 | 145 | 1.0 | 1.0 | 0.00 | 0.33 | 0.00 | 77 | 987.1 |
| 20260506023721 | 56 | 115 | 0.0 | 1.0 | 0.00 | 0.33 | 0.00 | 78 | 987.0 |
| 20260506023621 | 56 | 112 | 0.0 | 1.0 | 0.00 | 0.33 | 0.00 | 77 | 987.0 |
| 20260506023521 | 56 | 134 | 0.0 | 1.0 | 0.00 | 0.33 | 0.00 | 77 | 987.0 |
| 20260506023421 | 56 | 270 | 0.0 | 0.0 | 0.00 | 0.33 | 0.00 | 76 | 987.0 |
| 20260506023321 | 56 | 133 | 0.0 | 1.0 | 0.00 | 0.33 | 0.00 | 76 | 987.0 |
| 20260506023221 | 56 | 138 | 0.0 | 1.0 | 0.00 | 0.33 | 0.00 | 75 | 987.2 |
| 20260506023121 | 56 | 156 | 1.0 | 1.0 | 0.00 | 0.33 | 0.00 | 75 | 987.3 |
| 20260506023021 | 56 | 112 | 1.0 | 2.0 | 0.00 | 0.33 | 0.00 | 74 | 987.1 |
| 20260506022923 | 56 | 138 | 0.0 | 3.0 | 0.00 | 0.33 | 0.00 | 75 | 987.1 |
| 20260506022823 | 56 | 112 | 0.0 | 1.0 | 0.00 | 0.33 | 0.00 | 76 | 987.1 |
| 20260506022723 | 56 | 112 | 1.0 | 1.0 | 0.00 | 0.33 | 0.00 | 76 | 987.0 |
| 20260506022623 | 56 | 112 | 0.0 | 1.0 | 0.00 | 0.33 | 0.00 | 76 | 987.1 |
| 20260506022523 | 56 | 266 | 0.0 | 2.0 | 0.00 | 0.33 | 0.00 | 76 | 987.0 |
| 20260506022423 | 56 | 146 | 1.0 | 2.0 | 0.00 | 0.33 | 0.00 | 76 | 987.1 |
| 20260506022323 | 56 | 275 | 0.0 | 2.0 | 0.00 | 0.33 | 0.00 | 77 | 987.1 |
| 20260506022222 | 56 | 112 | 1.0 | 5.0 | 0.00 | 0.33 | 0.00 | 75 | 987.2 |
| 20260506022122 | 56 | 129 | 0.0 | 5.0 | 0.00 | 0.33 | 0.00 | 76 | 987.2 |
| 20260506022022 | 57 | 133 | 0.0 | 1.0 | 0.00 | 0.33 | 0.00 | 75 | 987.1 |
| 20260506021922 | 57 | 113 | 0.0 | 1.0 | 0.00 | 0.33 | 0.00 | 76 | 987.2 |
| 20260506021822 | 57 | 292 | 0.0 | 1.0 | 0.00 | 0.33 | 0.00 | 76 | 987.2 |
| 20260506021722 | 57 | 140 | 0.0 | 2.0 | 0.00 | 0.33 | 0.00 | 75 | 987.1 |
| 20260506021622 | 57 | 135 | 1.0 | 2.0 | 0.00 | 0.33 | 0.00 | 75 | 987.1 |
| 20260506021522 | 57 | 127 | 1.0 | 2.0 | 0.00 | 0.33 | 0.00 | 75 | 987.1 |
| 20260506021422 | 57 | 98 | 1.0 | 3.0 | 0.00 | 0.33 | 0.00 | 75 | 987.1 |
| 20260506021322 | 57 | 85 | 0.0 | 3.0 | 0.00 | 0.33 | 0.00 | 75 | 987.0 |
| 20260506021222 | 57 | 73 | 0.0 | 0.0 | 0.00 | 0.33 | 0.00 | 75 | 987.1 |
| 20260506021122 | 57 | 112 | 0.0 | 1.0 | 0.00 | 0.33 | 0.00 | 75 | 987.2 |
| 20260506021022 | 57 | 94 | 1.0 | 3.0 | 0.00 | 0.33 | 0.00 | 75 | 987.1 |
| 20260506020922 | 57 | 94 | 1.0 | 3.0 | 0.00 | 0.33 | 0.00 | 76 | 987.1 |
| 20260506020822 | 57 | 116 | 1.0 | 1.0 | 0.00 | 0.33 | 0.00 | 75 | 987.0 |
| 20260506020722 | 57 | 236 | 1.0 | 2.0 | 0.00 | 0.33 | 0.00 | 75 | 987.2 |
| 20260506020622 | 57 | 140 | 1.0 | 3.0 | 0.00 | 0.33 | 0.00 | 75 | 987.3 |
| 20260506020522 | 57 | 155 | 1.0 | 3.0 | 0.00 | 0.33 | 0.00 | 75 | 987.2 |
| 20260506020422 | 57 | 245 | 1.0 | 3.0 | 0.00 | 0.33 | 0.00 | 76 | 987.3 |
| 20260506020322 | 57 | 129 | 1.0 | 3.0 | 0.00 | 0.33 | 0.00 | 76 | 987.2 |
| 20260506020222 | 57 | 85 | 0.0 | 1.0 | 0.00 | 0.33 | 0.00 | 76 | 987.2 |
| 20260506020122 | 57 | 68 | 0.0 | 0.0 | 0.00 | 0.33 | 0.00 | 76 | 987.3 |
| 20260506020022 | 57 | 99 | 0.0 | 1.0 | 0.00 | 0.33 | 0.00 | 76 | 987.3 |
| 20260506015922 | 57 | 90 | 0.0 | 1.0 | 0.00 | 0.33 | 0.00 | 76 | 987.4 |
| 20260506015822 | 57 | 177 | 0.0 | 1.0 | 0.00 | 0.33 | 0.00 | 75 | 987.2 |
| 20260506015722 | 57 | 112 | 0.0 | 1.0 | 0.00 | 0.33 | 0.00 | 75 | 987.2 |
| 20260506015621 | 57 | 123 | 0.0 | 1.0 | 0.00 | 0.33 | 0.00 | 75 | 987.3 |
| 20260506015521 | 57 | 78 | 0.0 | 2.0 | 0.00 | 0.33 | 0.00 | 75 | 987.2 |
| 20260506015421 | 57 | 143 | 0.0 | 2.0 | 0.00 | 0.33 | 0.00 | 75 | 987.3 |
| 20260506015321 | 57 | 95 | 0.0 | 1.0 | 0.00 | 0.33 | 0.00 | 75 | 987.3 |
| 20260506015221 | 57 | 92 | 0.0 | 2.0 | 0.00 | 0.33 | 0.00 | 75 | 987.2 |
| 20260506015121 | 57 | 112 | 1.0 | 2.0 | 0.00 | 0.33 | 0.00 | 74 | 987.2 |
| 20260506015021 | 57 | 112 | 1.0 | 3.0 | 0.00 | 0.33 | 0.00 | 75 | 987.2 |
| 20260506014921 | 57 | 112 | 0.0 | 3.0 | 0.00 | 0.33 | 0.00 | 75 | 987.2 |
| 20260506014821 | 57 | 64 | 0.0 | 2.0 | 0.00 | 0.33 | 0.00 | 74 | 987.2 |
| 20260506014721 | 57 | 87 | 1.0 | 2.0 | 0.00 | 0.33 | 0.00 | 74 | 987.1 |
| 20260506014621 | 57 | 133 | 1.0 | 2.0 | 0.00 | 0.33 | 0.00 | 75 | 987.2 |
| 20260506014521 | 57 | 137 | 1.0 | 2.0 | 0.00 | 0.33 | 0.00 | 75 | 987.1 |
| 20260506014421 | 57 | 246 | 0.0 | 2.0 | 0.00 | 0.33 | 0.00 | 75 | 987.1 |
| 20260506014321 | 57 | 112 | 1.0 | 2.0 | 0.00 | 0.33 | 0.00 | 75 | 987.2 |
| 20260506014221 | 57 | 111 | 1.0 | 3.0 | 0.00 | 0.33 | 0.00 | 75 | 987.1 |
| 20260506014121 | 57 | 343 | 1.0 | 3.0 | 0.00 | 0.33 | 0.00 | 75 | 987.2 |
| 20260506014021 | 57 | 87 | 1.0 | 3.0 | 0.00 | 0.33 | 0.00 | 76 | 987.2 |
| 20260506013923 | 57 | 112 | 0.0 | 1.0 | 0.00 | 0.33 | 0.00 | 76 | 987.0 |
| 20260506013823 | 57 | 124 | 0.0 | 2.0 | 0.00 | 0.33 | 0.00 | 75 | 987.1 |
| 20260506013723 | 57 | 114 | 1.0 | 2.0 | 0.00 | 0.33 | 0.00 | 75 | 987.2 |
| 20260506013623 | 57 | 112 | 1.0 | 2.0 | 0.00 | 0.33 | 0.00 | 75 | 987.2 |
| 20260506013523 | 57 | 243 | 1.0 | 2.0 | 0.00 | 0.33 | 0.00 | 75 | 987.2 |
| 20260506013423 | 57 | 270 | 1.0 | 2.0 | 0.00 | 0.33 | 0.00 | 76 | 987.2 |
| 20260506013323 | 56 | 90 | 1.0 | 2.0 | 0.00 | 0.33 | 0.00 | 77 | 987.1 |
| 20260506013223 | 56 | 98 | 1.0 | 2.0 | 0.00 | 0.33 | 0.00 | 77 | 987.1 |
| 20260506013122 | 56 | 135 | 1.0 | 1.0 | 0.00 | 0.33 | 0.00 | 78 | 987.2 |
| 20260506013022 | 56 | 135 | 1.0 | 1.0 | 0.00 | 0.33 | 0.00 | 78 | 987.2 |
| 20260506012922 | 56 | 135 | 1.0 | 1.0 | 0.00 | 0.33 | 0.00 | 78 | 987.2 |
| 20260506012822 | 56 | 132 | 0.0 | 3.0 | 0.00 | 0.33 | 0.00 | 78 | 987.3 |
| 20260506012722 | 57 | 131 | 1.0 | 3.0 | 0.00 | 0.33 | 0.00 | 78 | 987.3 |
| 20260506012622 | 57 | 142 | 1.0 | 2.0 | 0.00 | 0.33 | 0.00 | 78 | 987.2 |
| 20260506012522 | 57 | 135 | 1.0 | 2.0 | 0.00 | 0.33 | 0.00 | 77 | 987.2 |
| 20260506012422 | 57 | 83 | 0.0 | 2.0 | 0.00 | 0.33 | 0.00 | 77 | 987.1 |
| 20260506012322 | 57 | 220 | 1.0 | 3.0 | 0.00 | 0.33 | 0.00 | 76 | 987.1 |
| 20260506012222 | 57 | 135 | 1.0 | 5.0 | 0.00 | 0.33 | 0.00 | 76 | 987.1 |
| 20260506012122 | 57 | 135 | 1.0 | 5.0 | 0.00 | 0.33 | 0.00 | 76 | 987.1 |
| 20260506012022 | 57 | 54 | 1.0 | 3.0 | 0.00 | 0.33 | 0.00 | 76 | 987.2 |
| 20260506011922 | 57 | 142 | 1.0 | 3.0 | 0.00 | 0.33 | 0.00 | 76 | 987.2 |
| 20260506011822 | 56 | 111 | 1.0 | 3.0 | 0.00 | 0.33 | 0.00 | 77 | 987.3 |
| 20260506011722 | 56 | 90 | 1.0 | 3.0 | 0.00 | 0.33 | 0.00 | 78 | 987.3 |
| 20260506011622 | 56 | 122 | 1.0 | 2.0 | 0.00 | 0.33 | 0.00 | 78 | 987.1 |
| 20260506011522 | 56 | 179 | 1.0 | 3.0 | 0.00 | 0.33 | 0.00 | 78 | 987.1 |
| 20260506011422 | 56 | 161 | 1.0 | 3.0 | 0.00 | 0.33 | 0.00 | 79 | 987.2 |
| 20260506011322 | 56 | 141 | 1.0 | 2.0 | 0.00 | 0.33 | 0.00 | 79 | 987.3 |
| 20260506011221 | 56 | 116 | 0.0 | 2.0 | 0.00 | 0.33 | 0.00 | 79 | 987.1 |
| 20260506011121 | 56 | 105 | 0.0 | 1.0 | 0.00 | 0.33 | 0.00 | 79 | 987.2 |
| 20260506011021 | 56 | 137 | 1.0 | 1.0 | 0.00 | 0.33 | 0.00 | 79 | 987.3 |
| 20260506010921 | 56 | 121 | 1.0 | 3.0 | 0.00 | 0.33 | 0.00 | 79 | 987.3 |
| 20260506010821 | 56 | 108 | 1.0 | 3.0 | 0.00 | 0.33 | 0.00 | 79 | 987.3 |
| 20260506010721 | 56 | 137 | 1.0 | 2.0 | 0.00 | 0.33 | 0.00 | 79 | 987.4 |
| 20260506010621 | 56 | 112 | 1.0 | 2.0 | 0.00 | 0.33 | 0.00 | 79 | 987.4 |
| 20260506010521 | 56 | 98 | 1.0 | 2.0 | 0.00 | 0.33 | 0.00 | 79 | 987.5 |
| 20260506010421 | 56 | 117 | 0.0 | 2.0 | 0.00 | 0.33 | 0.00 | 80 | 987.5 |
| 20260506010321 | 56 | 124 | 0.0 | 1.0 | 0.00 | 0.33 | 0.00 | 79 | 987.5 |
| 20260506010221 | 56 | 128 | 0.0 | 1.0 | 0.00 | 0.33 | 0.00 | 79 | 987.4 |
| 20260506010121 | 56 | 150 | 0.0 | 1.0 | 0.00 | 0.33 | 0.00 | 79 | 987.3 |
| 20260506010021 | 56 | 118 | 0.0 | 1.0 | 0.00 | 0.33 | 0.00 | 79 | 987.4 |
| 20260506005921 | 56 | 115 | 0.0 | 1.0 | 0.00 | 0.33 | 0.00 | 79 | 987.3 |
| 20260506005821 | 56 | 135 | 0.0 | 1.0 | 0.00 | 0.33 | 0.00 | 79 | 987.4 |
| 20260506005721 | 56 | 136 | 0.0 | 3.0 | 0.00 | 0.33 | 0.00 | 78 | 987.4 |
| 20260506005621 | 57 | 246 | 1.0 | 3.0 | 0.00 | 0.33 | 0.00 | 78 | 987.3 |
| 20260506005523 | 57 | 119 | 1.0 | 2.0 | 0.00 | 0.33 | 0.00 | 78 | 987.3 |
| 20260506005423 | 57 | 116 | 1.0 | 2.0 | 0.00 | 0.33 | 0.00 | 78 | 987.3 |
| 20260506005323 | 57 | 123 | 1.0 | 2.0 | 0.00 | 0.33 | 0.00 | 78 | 987.2 |
| 20260506005223 | 57 | 135 | 1.0 | 2.0 | 0.00 | 0.33 | 0.00 | 77 | 987.4 |
| 20260506005123 | 57 | 103 | 0.0 | 2.0 | 0.00 | 0.33 | 0.00 | 78 | 987.3 |
| 20260506005023 | 57 | 87 | 1.0 | 2.0 | 0.00 | 0.33 | 0.00 | 77 | 987.3 |
| 20260506004923 | 57 | 114 | 0.0 | 3.0 | 0.00 | 0.33 | 0.00 | 77 | 987.3 |
| 20260506004822 | 57 | 171 | 1.0 | 3.0 | 0.00 | 0.33 | 0.00 | 76 | 987.3 |
| 20260506004722 | 57 | 135 | 1.0 | 5.0 | 0.00 | 0.33 | 0.00 | 77 | 987.4 |
| 20260506004622 | 57 | 125 | 1.0 | 5.0 | 0.00 | 0.33 | 0.00 | 77 | 987.3 |
| 20260506004522 | 57 | 112 | 1.0 | 3.0 | 0.00 | 0.33 | 0.00 | 77 | 987.2 |
| 20260506004422 | 57 | 122 | 1.0 | 3.0 | 0.00 | 0.33 | 0.00 | 77 | 987.4 |
| 20260506004322 | 57 | 155 | 1.0 | 2.0 | 0.00 | 0.33 | 0.00 | 77 | 987.4 |
| 20260506004222 | 57 | 347 | 1.0 | 5.0 | 0.00 | 0.33 | 0.00 | 77 | 987.4 |
| 20260506004122 | 57 | 37 | 2.0 | 5.0 | 0.00 | 0.33 | 0.00 | 77 | 987.4 |
| 20260506004022 | 57 | 155 | 1.0 | 5.0 | 0.00 | 0.33 | 0.00 | 79 | 987.3 |
| 20260506003922 | 57 | 112 | 0.0 | 2.0 | 0.00 | 0.33 | 0.00 | 78 | 987.3 |
| 20260506003822 | 57 | 131 | 1.0 | 5.0 | 0.00 | 0.33 | 0.00 | 77 | 987.5 |
| 20260506003722 | 57 | 112 | 1.0 | 5.0 | 0.00 | 0.33 | 0.00 | 78 | 987.5 |
| 20260506003622 | 56 | 125 | 1.0 | 3.0 | 0.00 | 0.33 | 0.00 | 78 | 987.4 |
| 20260506003522 | 56 | 203 | 1.0 | 2.0 | 0.00 | 0.33 | 0.00 | 78 | 987.5 |
| 20260506003422 | 56 | 118 | 1.0 | 2.0 | 0.00 | 0.33 | 0.00 | 79 | 987.5 |
| 20260506003322 | 56 | 97 | 1.0 | 2.0 | 0.00 | 0.33 | 0.00 | 79 | 987.5 |
| 20260506003222 | 56 | 96 | 1.0 | 2.0 | 0.00 | 0.33 | 0.00 | 79 | 987.5 |
| 20260506003122 | 56 | 103 | 1.0 | 3.0 | 0.00 | 0.33 | 0.00 | 78 | 987.5 |
| 20260506003022 | 56 | 52 | 1.0 | 3.0 | 0.00 | 0.33 | 0.00 | 78 | 987.5 |
| 20260506002922 | 56 | 234 | 1.0 | 2.0 | 0.00 | 0.33 | 0.00 | 79 | 987.5 |
| 20260506002822 | 56 | 122 | 1.0 | 5.0 | 0.00 | 0.33 | 0.00 | 79 | 987.7 |
| 20260506002721 | 56 | 118 | 1.0 | 5.0 | 0.00 | 0.33 | 0.00 | 79 | 987.8 |
| 20260506002621 | 56 | 122 | 0.0 | 2.0 | 0.00 | 0.33 | 0.00 | 79 | 987.8 |
| 20260506002521 | 56 | 113 | 0.0 | 1.0 | 0.00 | 0.33 | 0.00 | 79 | 987.6 |
| 20260506002421 | 56 | 125 | 0.0 | 2.0 | 0.00 | 0.33 | 0.00 | 79 | 987.8 |
| 20260506002321 | 56 | 140 | 1.0 | 2.0 | 0.00 | 0.33 | 0.00 | 79 | 987.7 |
| 20260506002221 | 56 | 138 | 1.0 | 2.0 | 0.00 | 0.33 | 0.00 | 80 | 987.7 |
| 20260506002121 | 55 | 133 | 1.0 | 2.0 | 0.00 | 0.33 | 0.00 | 81 | 987.8 |
| 20260506002021 | 55 | 147 | 1.0 | 3.0 | 0.00 | 0.33 | 0.00 | 82 | 987.8 |
| 20260506001921 | 55 | 135 | 1.0 | 3.0 | 0.00 | 0.33 | 0.00 | 83 | 987.9 |
| 20260506001821 | 55 | 112 | 1.0 | 3.0 | 0.00 | 0.33 | 0.00 | 83 | 987.9 |
| 20260506001721 | 55 | 119 | 1.0 | 3.0 | 0.00 | 0.33 | 0.00 | 84 | 987.9 |
| 20260506001621 | 55 | 99 | 0.0 | 1.0 | 0.00 | 0.33 | 0.00 | 84 | 987.9 |
| 20260506001521 | 55 | 112 | 0.0 | 1.0 | 0.00 | 0.33 | 0.00 | 84 | 987.9 |
| 20260506001423 | 55 | 112 | 0.0 | 1.0 | 0.00 | 0.33 | 0.00 | 84 | 987.9 |
| 20260506001323 | 55 | 112 | 0.0 | 0.0 | 0.00 | 0.33 | 0.00 | 84 | 988.0 |
| 20260506001223 | 55 | 119 | 0.0 | 0.0 | 0.00 | 0.33 | 0.00 | 84 | 987.9 |
| 20260506001123 | 55 | 135 | 0.0 | 0.0 | 0.00 | 0.33 | 0.00 | 85 | 988.1 |
| 20260506001023 | 55 | 135 | 0.0 | 0.0 | 0.00 | 0.33 | 0.00 | 85 | 988.1 |
| 20260506000923 | 55 | 236 | 0.0 | 0.0 | 0.00 | 0.33 | 0.00 | 85 | 988.0 |
| 20260506000822 | 55 | 114 | 0.0 | 0.0 | 0.00 | 0.33 | 0.00 | 84 | 987.9 |
| 20260506000722 | 55 | 112 | 0.0 | 0.0 | 0.00 | 0.33 | 0.00 | 84 | 987.9 |
| 20260506000622 | 55 | 112 | 0.0 | 0.0 | 0.00 | 0.33 | 0.00 | 84 | 987.9 |
| 20260506000522 | 55 | 112 | 0.0 | 0.0 | 0.00 | 0.33 | 0.00 | 84 | 987.9 |
| 20260506000423 | 55 | 112 | 0.0 | 0.0 | 0.00 | 0.33 | 0.00 | 84 | 987.9 |
| 20260506000323 | 55 | 112 | 0.0 | 0.0 | 0.00 | 0.33 | 0.00 | 84 | 988.0 |
| 20260506000222 | 55 | 112 | 0.0 | 0.0 | 0.00 | 0.33 | 0.00 | 84 | 987.9 |
| 20260506000122 | 55 | 112 | 0.0 | 0.0 | 0.00 | 0.33 | 0.00 | 84 | 987.9 |
| 20260506000022 | 55 | 119 | 0.0 | 1.0 | 0.00 | 0.33 | 0.00 | 84 | 987.8 |
| 20260505235922 | 55 | 122 | 0.0 | 1.0 | 0.00 | 0.33 | 0.00 | 83 | 987.8 |
| 20260505235822 | 55 | 112 | 0.0 | 0.0 | 0.00 | 0.33 | 0.00 | 83 | 987.8 |
| 20260505235722 | 55 | 109 | 0.0 | 1.0 | 0.00 | 0.33 | 0.00 | 83 | 987.7 |
| 20260505235622 | 55 | 3 | 0.0 | 1.0 | 0.00 | 0.33 | 0.00 | 84 | 987.7 |
| 20260505235522 | 55 | 0 | 0.0 | 0.0 | 0.00 | 0.33 | 0.00 | 83 | 987.7 |
| 20260505235422 | 56 | 329 | 0.0 | 0.0 | 0.00 | 0.33 | 0.00 | 83 | 987.7 |
| 20260505235322 | 56 | 295 | 0.0 | 0.0 | 0.00 | 0.33 | 0.00 | 83 | 987.9 |
| 20260505235222 | 56 | 67 | 0.0 | 0.0 | 0.00 | 0.33 | 0.00 | 82 | 988.0 |
| 20260505235122 | 56 | 80 | 0.0 | 0.0 | 0.00 | 0.33 | 0.00 | 82 | 987.8 |
| 20260505235022 | 56 | 90 | 0.0 | 1.0 | 0.00 | 0.33 | 0.00 | 82 | 987.8 |
| 20260505234922 | 56 | 62 | 0.0 | 1.0 | 0.00 | 0.33 | 0.00 | 81 | 987.9 |
| 20260505234822 | 56 | 118 | 0.0 | 0.0 | 0.00 | 0.33 | 0.00 | 81 | 987.9 |
| 20260505234722 | 56 | 135 | 0.0 | 0.0 | 0.00 | 0.33 | 0.00 | 80 | 987.9 |
| 20260505234622 | 56 | 127 | 0.0 | 2.0 | 0.00 | 0.33 | 0.00 | 80 | 987.8 |
| 20260505234522 | 57 | 112 | 0.0 | 2.0 | 0.00 | 0.33 | 0.00 | 80 | 987.7 |
| 20260505234422 | 57 | 112 | 1.0 | 2.0 | 0.00 | 0.33 | 0.00 | 80 | 987.8 |
| 20260505234321 | 57 | 112 | 1.0 | 2.0 | 0.00 | 0.33 | 0.00 | 80 | 987.8 |
| 20260505234221 | 57 | 112 | 1.0 | 2.0 | 0.00 | 0.33 | 0.00 | 80 | 987.8 |
| 20260505234121 | 57 | 111 | 1.0 | 2.0 | 0.00 | 0.33 | 0.00 | 79 | 987.8 |
| 20260505234021 | 57 | 102 | 1.0 | 5.0 | 0.00 | 0.33 | 0.00 | 79 | 987.9 |
| 20260505233921 | 57 | 112 | 1.0 | 7.0 | 0.00 | 0.33 | 0.00 | 79 | 987.8 |
| 20260505233821 | 57 | 134 | 1.0 | 7.0 | 0.00 | 0.33 | 0.00 | 79 | 987.8 |
| 20260505233721 | 57 | 172 | 2.0 | 3.0 | 0.00 | 0.33 | 0.00 | 78 | 987.9 |
| 20260505233621 | 57 | 132 | 1.0 | 3.0 | 0.00 | 0.33 | 0.00 | 79 | 987.7 |
| 20260505233521 | 57 | 112 | 1.0 | 3.0 | 0.00 | 0.33 | 0.00 | 79 | 987.9 |
| 20260505233421 | 57 | 121 | 1.0 | 3.0 | 0.00 | 0.33 | 0.00 | 79 | 988.0 |
| 20260505233321 | 57 | 128 | 1.0 | 5.0 | 0.00 | 0.33 | 0.00 | 79 | 988.0 |
| 20260505233221 | 57 | 92 | 2.0 | 5.0 | 0.00 | 0.33 | 0.00 | 79 | 988.1 |
| 20260505233121 | 57 | 168 | 1.0 | 3.0 | 0.00 | 0.33 | 0.00 | 79 | 988.0 |
| 20260505233021 | 57 | 101 | 1.0 | 2.0 | 0.00 | 0.33 | 0.00 | 79 | 988.0 |
| 20260505232921 | 57 | 106 | 0.0 | 2.0 | 0.00 | 0.33 | 0.00 | 79 | 988.0 |
| 20260505232821 | 57 | 315 | 1.0 | 2.0 | 0.00 | 0.33 | 0.00 | 79 | 988.0 |
| 20260505232723 | 57 | 105 | 1.0 | 2.0 | 0.00 | 0.33 | 0.00 | 79 | 988.0 |
| 20260505232623 | 57 | 90 | 1.0 | 3.0 | 0.00 | 0.33 | 0.00 | 78 | 988.0 |
| 20260505232523 | 57 | 121 | 1.0 | 5.0 | 0.00 | 0.33 | 0.00 | 78 | 987.9 |
| 20260505232423 | 57 | 170 | 2.0 | 6.0 | 0.00 | 0.33 | 0.00 | 78 | 988.0 |
| 20260505232323 | 57 | 158 | 2.0 | 6.0 | 0.00 | 0.33 | 0.00 | 78 | 988.0 |
| 20260505232223 | 57 | 147 | 1.0 | 3.0 | 0.00 | 0.33 | 0.00 | 78 | 988.0 |
| 20260505232122 | 57 | 121 | 1.0 | 3.0 | 0.00 | 0.33 | 0.00 | 79 | 988.1 |
| 20260505232022 | 57 | 178 | 1.0 | 2.0 | 0.00 | 0.33 | 0.00 | 79 | 988.1 |
| 20260505231922 | 57 | 146 | 0.0 | 1.0 | 0.00 | 0.33 | 0.00 | 79 | 988.0 |
| 20260505231822 | 57 | 103 | 1.0 | 2.0 | 0.00 | 0.33 | 0.00 | 79 | 988.1 |
| 20260505231722 | 57 | 132 | 1.0 | 5.0 | 0.00 | 0.33 | 0.00 | 79 | 988.1 |
| 20260505231622 | 57 | 142 | 2.0 | 5.0 | 0.00 | 0.33 | 0.00 | 79 | 988.1 |
| 20260505231522 | 57 | 112 | 2.0 | 5.0 | 0.00 | 0.33 | 0.00 | 79 | 988.1 |
| 20260505231422 | 57 | 128 | 1.0 | 2.0 | 0.00 | 0.33 | 0.00 | 79 | 988.1 |
| 20260505231322 | 57 | 146 | 1.0 | 3.0 | 0.00 | 0.33 | 0.00 | 78 | 988.1 |
| 20260505231222 | 57 | 91 | 1.0 | 3.0 | 0.00 | 0.33 | 0.00 | 79 | 988.1 |
| 20260505231122 | 57 | 90 | 1.0 | 2.0 | 0.00 | 0.33 | 0.00 | 79 | 988.0 |
| 20260505231022 | 57 | 97 | 1.0 | 2.0 | 0.00 | 0.33 | 0.00 | 79 | 988.0 |
| 20260505230922 | 57 | 79 | 1.0 | 5.0 | 0.00 | 0.33 | 0.00 | 79 | 988.2 |
| 20260505230822 | 57 | 89 | 1.0 | 5.0 | 0.00 | 0.33 | 0.00 | 80 | 988.1 |
| 20260505230722 | 57 | 53 | 1.0 | 3.0 | 0.00 | 0.33 | 0.00 | 80 | 988.2 |
| 20260505230622 | 57 | 112 | 1.0 | 2.0 | 0.00 | 0.33 | 0.00 | 80 | 988.3 |
| 20260505230522 | 57 | 127 | 1.0 | 2.0 | 0.00 | 0.33 | 0.00 | 81 | 988.1 |
| 20260505230422 | 57 | 90 | 1.0 | 3.0 | 0.00 | 0.33 | 0.00 | 81 | 988.3 |
| 20260505230322 | 57 | 301 | 1.0 | 3.0 | 0.00 | 0.33 | 0.00 | 81 | 988.3 |
| 20260505230222 | 57 | 134 | 1.0 | 3.0 | 0.00 | 0.33 | 0.00 | 81 | 988.2 |
| 20260505230122 | 57 | 127 | 1.0 | 3.0 | 0.00 | 0.33 | 0.00 | 81 | 988.2 |
| 20260505230022 | 57 | 102 | 0.0 | 2.0 | 0.00 | 0.33 | 0.00 | 81 | 988.3 |
| 20260505225922 | 57 | 83 | 0.0 | 1.0 | 0.00 | 0.33 | 0.00 | 82 | 988.3 |
| 20260505225821 | 57 | 76 | 0.0 | 1.0 | 0.00 | 0.33 | 0.00 | 82 | 988.4 |
| 20260505225721 | 57 | 106 | 0.0 | 2.0 | 0.00 | 0.33 | 0.00 | 81 | 988.2 |
| 20260505225621 | 57 | 106 | 1.0 | 2.0 | 0.00 | 0.33 | 0.00 | 81 | 988.2 |
| 20260505225521 | 57 | 116 | 0.0 | 1.0 | 0.00 | 0.33 | 0.00 | 81 | 988.3 |
| 20260505225421 | 57 | 102 | 0.0 | 1.0 | 0.00 | 0.33 | 0.00 | 81 | 988.3 |
| 20260505225321 | 57 | 128 | 0.0 | 1.0 | 0.00 | 0.33 | 0.00 | 81 | 988.3 |
| 20260505225221 | 57 | 135 | 0.0 | 2.0 | 0.00 | 0.33 | 0.00 | 82 | 988.3 |
| 20260505225121 | 57 | 135 | 1.0 | 3.0 | 0.00 | 0.33 | 0.00 | 81 | 988.3 |
| 20260505225021 | 57 | 120 | 0.0 | 3.0 | 0.00 | 0.33 | 0.00 | 82 | 988.4 |
| 20260505224921 | 57 | 120 | 0.0 | 2.0 | 0.00 | 0.33 | 0.00 | 82 | 988.5 |
| 20260505224821 | 57 | 96 | 0.0 | 1.0 | 0.00 | 0.33 | 0.00 | 82 | 988.4 |
| 20260505224721 | 57 | 112 | 1.0 | 2.0 | 0.00 | 0.33 | 0.00 | 82 | 988.5 |
| 20260505224621 | 57 | 82 | 0.0 | 2.0 | 0.00 | 0.33 | 0.00 | 82 | 988.5 |
| 20260505224521 | 57 | 82 | 0.0 | 1.0 | 0.00 | 0.33 | 0.00 | 82 | 988.3 |
| 20260505224421 | 57 | 76 | 0.0 | 1.0 | 0.00 | 0.33 | 0.00 | 82 | 988.4 |
| 20260505224321 | 57 | 104 | 0.0 | 1.0 | 0.00 | 0.33 | 0.00 | 82 | 988.4 |
| 20260505224221 | 57 | 125 | 0.0 | 2.0 | 0.00 | 0.33 | 0.00 | 82 | 988.3 |
| 20260505224121 | 57 | 112 | 0.0 | 2.0 | 0.00 | 0.33 | 0.00 | 81 | 988.4 |
| 20260505224021 | 57 | 112 | 1.0 | 2.0 | 0.00 | 0.33 | 0.00 | 81 | 988.3 |
| 20260505223921 | 57 | 120 | 1.0 | 2.0 | 0.00 | 0.33 | 0.00 | 82 | 988.4 |
| 20260505223821 | 57 | 135 | 1.0 | 1.0 | 0.00 | 0.33 | 0.00 | 81 | 988.4 |
| 20260505223723 | 57 | 127 | 0.0 | 1.0 | 0.00 | 0.33 | 0.00 | 81 | 988.4 |
| 20260505223623 | 57 | 195 | 0.0 | 1.0 | 0.00 | 0.33 | 0.00 | 81 | 988.4 |
| 20260505223523 | 57 | 270 | 0.0 | 3.0 | 0.00 | 0.33 | 0.00 | 81 | 988.4 |
| 20260505223423 | 57 | 270 | 1.0 | 3.0 | 0.00 | 0.33 | 0.00 | 81 | 988.4 |
| 20260505223323 | 57 | 93 | 1.0 | 2.0 | 0.00 | 0.33 | 0.00 | 81 | 988.5 |
| 20260505223223 | 57 | 114 | 1.0 | 1.0 | 0.00 | 0.33 | 0.00 | 81 | 988.4 |
| 20260505223122 | 57 | 124 | 0.0 | 1.0 | 0.00 | 0.33 | 0.00 | 81 | 988.5 |
| 20260505223022 | 57 | 112 | 0.0 | 2.0 | 0.00 | 0.33 | 0.00 | 80 | 988.4 |
| 20260505222922 | 57 | 127 | 1.0 | 2.0 | 0.00 | 0.33 | 0.00 | 80 | 988.5 |
| 20260505222822 | 57 | 112 | 1.0 | 3.0 | 0.00 | 0.33 | 0.00 | 80 | 988.4 |
| 20260505222722 | 57 | 112 | 1.0 | 3.0 | 0.00 | 0.33 | 0.00 | 80 | 988.4 |
| 20260505222622 | 57 | 138 | 1.0 | 2.0 | 0.00 | 0.33 | 0.00 | 80 | 988.5 |
| 20260505222522 | 57 | 110 | 1.0 | 2.0 | 0.00 | 0.33 | 0.00 | 80 | 988.4 |
| 20260505222422 | 57 | 137 | 1.0 | 2.0 | 0.00 | 0.33 | 0.00 | 80 | 988.5 |
| 20260505222322 | 57 | 292 | 0.0 | 3.0 | 0.00 | 0.33 | 0.00 | 80 | 988.4 |
| 20260505222222 | 57 | 292 | 1.0 | 6.0 | 0.00 | 0.33 | 0.00 | 80 | 988.5 |
| 20260505222122 | 57 | 103 | 1.0 | 6.0 | 0.00 | 0.33 | 0.00 | 79 | 988.4 |
| 20260505222022 | 57 | 74 | 1.0 | 3.0 | 0.00 | 0.33 | 0.00 | 79 | 988.4 |
| 20260505221922 | 57 | 145 | 2.0 | 5.0 | 0.00 | 0.33 | 0.00 | 80 | 988.4 |
| 20260505221822 | 57 | 100 | 1.0 | 5.0 | 0.00 | 0.33 | 0.00 | 81 | 988.4 |
| 20260505221722 | 57 | 94 | 1.0 | 2.0 | 0.00 | 0.33 | 0.00 | 80 | 988.5 |
| 20260505221622 | 57 | 112 | 0.0 | 1.0 | 0.00 | 0.33 | 0.00 | 80 | 988.3 |
| 20260505221522 | 57 | 104 | 0.0 | 1.0 | 0.00 | 0.33 | 0.00 | 80 | 988.4 |
| 20260505221422 | 57 | 123 | 1.0 | 6.0 | 0.00 | 0.33 | 0.00 | 79 | 988.4 |
| 20260505221322 | 57 | 129 | 1.0 | 6.0 | 0.00 | 0.33 | 0.00 | 80 | 988.4 |
| 20260505221222 | 57 | 112 | 1.0 | 5.0 | 0.00 | 0.33 | 0.00 | 80 | 988.5 |
| 20260505221122 | 57 | 122 | 2.0 | 5.0 | 0.00 | 0.33 | 0.00 | 80 | 988.4 |
| 20260505221022 | 57 | 135 | 2.0 | 3.0 | 0.00 | 0.33 | 0.00 | 80 | 988.5 |
| 20260505220921 | 57 | 135 | 1.0 | 3.0 | 0.00 | 0.33 | 0.00 | 81 | 988.4 |
| 20260505220821 | 57 | 127 | 1.0 | 2.0 | 0.00 | 0.33 | 0.00 | 80 | 988.6 |
| 20260505220721 | 57 | 68 | 0.0 | 2.0 | 0.00 | 0.33 | 0.00 | 81 | 988.4 |
| 20260505220621 | 57 | 84 | 1.0 | 3.0 | 0.00 | 0.33 | 0.00 | 80 | 988.4 |
| 20260505220521 | 57 | 167 | 1.0 | 3.0 | 0.00 | 0.33 | 0.00 | 80 | 988.3 |
| 20260505220421 | 57 | 90 | 1.0 | 1.0 | 0.00 | 0.33 | 0.00 | 80 | 988.3 |
| 20260505220321 | 57 | 97 | 0.0 | 1.0 | 0.00 | 0.33 | 0.00 | 81 | 988.3 |
| 20260505220221 | 57 | 112 | 0.0 | 0.0 | 0.00 | 0.33 | 0.00 | 81 | 988.3 |
| 20260505220121 | 57 | 116 | 0.0 | 2.0 | 0.00 | 0.33 | 0.00 | 81 | 988.4 |
| 20260505220021 | 57 | 152 | 1.0 | 2.0 | 0.00 | 0.33 | 0.00 | 80 | 988.3 |
| 20260505215921 | 57 | 117 | 1.0 | 2.0 | 0.00 | 0.33 | 0.33 | 80 | 988.4 |
| 20260505215821 | 57 | 135 | 0.0 | 2.0 | 0.00 | 0.33 | 0.33 | 81 | 988.4 |
| 20260505215721 | 57 | 130 | 1.0 | 5.0 | 0.00 | 0.33 | 0.33 | 80 | 988.4 |
| 20260505215623 | 57 | 114 | 2.0 | 5.0 | 0.00 | 0.33 | 0.33 | 80 | 988.3 |
| 20260505215523 | 56 | 128 | 2.0 | 5.0 | 0.00 | 0.33 | 0.33 | 81 | 988.4 |
| 20260505215423 | 56 | 127 | 2.0 | 5.0 | 0.00 | 0.33 | 0.33 | 82 | 988.3 |
| 20260505215323 | 56 | 119 | 1.0 | 5.0 | 0.00 | 0.33 | 0.33 | 83 | 988.3 |
| 20260505215223 | 56 | 112 | 1.0 | 2.0 | 0.00 | 0.33 | 0.33 | 83 | 988.4 |
| 20260505215123 | 56 | 105 | 1.0 | 2.0 | 0.00 | 0.33 | 0.33 | 83 | 988.4 |
| 20260505215023 | 56 | 122 | 0.0 | 1.0 | 0.00 | 0.33 | 0.33 | 83 | 988.5 |
| 20260505214922 | 56 | 113 | 0.0 | 1.0 | 0.00 | 0.33 | 0.33 | 83 | 988.5 |
| 20260505214822 | 56 | 342 | 1.0 | 1.0 | 0.00 | 0.33 | 0.33 | 83 | 988.4 |
| 20260505214722 | 56 | 127 | 0.0 | 1.0 | 0.00 | 0.33 | 0.33 | 83 | 988.5 |
| 20260505214622 | 56 | 99 | 0.0 | 1.0 | 0.00 | 0.33 | 0.33 | 82 | 988.3 |
| 20260505214522 | 57 | 142 | 0.0 | 2.0 | 0.00 | 0.33 | 0.33 | 82 | 988.4 |
| 20260505214422 | 57 | 135 | 1.0 | 2.0 | 0.00 | 0.33 | 0.33 | 82 | 988.4 |
| 20260505214322 | 57 | 135 | 0.0 | 2.0 | 0.00 | 0.33 | 0.33 | 82 | 988.3 |
| 20260505214222 | 57 | 135 | 0.0 | 2.0 | 0.00 | 0.33 | 0.33 | 82 | 988.5 |
| 20260505214122 | 57 | 122 | 0.0 | 1.0 | 0.00 | 0.33 | 0.33 | 81 | 988.4 |
| 20260505214022 | 57 | 130 | 1.0 | 5.0 | 0.00 | 0.33 | 0.33 | 81 | 988.5 |
| 20260505213922 | 57 | 118 | 2.0 | 5.0 | 0.00 | 0.33 | 0.33 | 80 | 988.3 |
| 20260505213822 | 57 | 123 | 1.0 | 2.0 | 0.00 | 0.33 | 0.33 | 81 | 988.4 |
| 20260505213722 | 57 | 125 | 0.0 | 2.0 | 0.00 | 0.33 | 0.33 | 81 | 988.5 |
| 20260505213622 | 57 | 114 | 1.0 | 2.0 | 0.00 | 0.33 | 0.33 | 81 | 988.4 |
| 20260505213522 | 57 | 135 | 1.0 | 2.0 | 0.00 | 0.33 | 0.33 | 82 | 988.4 |
| 20260505213422 | 57 | 100 | 1.0 | 2.0 | 0.00 | 0.33 | 0.33 | 81 | 988.5 |
| 20260505213322 | 57 | 112 | 1.0 | 3.0 | 0.00 | 0.33 | 0.33 | 81 | 988.3 |
| 20260505213222 | 57 | 135 | 1.0 | 2.0 | 0.00 | 0.33 | 0.33 | 82 | 988.2 |
| 20260505213122 | 57 | 127 | 1.0 | 2.0 | 0.00 | 0.33 | 0.33 | 82 | 988.4 |
| 20260505213022 | 57 | 112 | 1.0 | 2.0 | 0.00 | 0.33 | 0.33 | 81 | 988.3 |
| 20260505212922 | 57 | 132 | 1.0 | 3.0 | 0.00 | 0.33 | 0.33 | 81 | 988.4 |
| 20260505212821 | 57 | 115 | 2.0 | 3.0 | 0.00 | 0.33 | 0.33 | 81 | 988.3 |
| 20260505212721 | 57 | 150 | 1.0 | 3.0 | 0.00 | 0.33 | 0.33 | 82 | 988.4 |
| 20260505212621 | 57 | 181 | 1.0 | 2.0 | 0.00 | 0.33 | 0.33 | 82 | 988.3 |
| 20260505212521 | 57 | 113 | 1.0 | 2.0 | 0.00 | 0.33 | 0.33 | 82 | 988.4 |
| 20260505212421 | 57 | 78 | 1.0 | 2.0 | 0.00 | 0.33 | 0.33 | 82 | 988.5 |
| 20260505212321 | 57 | 135 | 1.0 | 5.0 | 0.00 | 0.33 | 0.33 | 82 | 988.5 |
| 20260505212221 | 57 | 152 | 1.0 | 5.0 | 0.00 | 0.33 | 0.33 | 82 | 988.4 |
| 20260505212121 | 57 | 117 | 0.0 | 5.0 | 0.00 | 0.33 | 0.33 | 83 | 988.5 |
| 20260505212021 | 57 | 112 | 1.0 | 1.0 | 0.00 | 0.33 | 0.33 | 83 | 988.6 |
| 20260505211921 | 57 | 112 | 0.0 | 1.0 | 0.00 | 0.33 | 0.33 | 82 | 988.3 |
| 20260505211823 | 57 | 112 | 1.0 | 1.0 | 0.00 | 0.33 | 0.33 | 82 | 988.5 |
| 20260505211723 | 57 | 112 | 0.0 | 1.0 | 0.00 | 0.33 | 0.33 | 83 | 988.4 |
| 20260505211623 | 57 | 110 | 0.0 | 2.0 | 0.00 | 0.33 | 0.33 | 82 | 988.5 |
| 20260505211523 | 57 | 60 | 1.0 | 2.0 | 0.00 | 0.33 | 0.33 | 82 | 988.5 |
| 20260505211422 | 57 | 55 | 1.0 | 2.0 | 0.00 | 0.33 | 0.33 | 81 | 988.5 |
| 20260505211322 | 57 | 128 | 0.0 | 2.0 | 0.00 | 0.33 | 0.33 | 81 | 988.5 |
| 20260505211222 | 57 | 172 | 1.0 | 2.0 | 0.00 | 0.33 | 0.33 | 81 | 988.5 |
| 20260505211122 | 57 | 121 | 1.0 | 3.0 | 0.00 | 0.33 | 0.33 | 81 | 988.5 |
| 20260505211022 | 57 | 135 | 1.0 | 3.0 | 0.00 | 0.33 | 0.33 | 82 | 988.5 |
| 20260505210922 | 57 | 130 | 1.0 | 2.0 | 0.00 | 0.33 | 0.33 | 82 | 988.4 |
| 20260505210822 | 57 | 123 | 1.0 | 2.0 | 0.00 | 0.33 | 0.33 | 82 | 988.3 |
| 20260505210722 | 57 | 263 | 1.0 | 2.0 | 0.00 | 0.33 | 0.33 | 82 | 988.5 |
| 20260505210622 | 57 | 41 | 0.0 | 2.0 | 0.00 | 0.33 | 0.33 | 83 | 988.5 |
| 20260505210522 | 57 | 76 | 0.0 | 2.0 | 0.00 | 0.33 | 0.33 | 83 | 988.3 |
| 20260505210422 | 57 | 95 | 1.0 | 2.0 | 0.00 | 0.33 | 0.33 | 83 | 988.4 |
| 20260505210322 | 57 | 112 | 0.0 | 1.0 | 0.00 | 0.33 | 0.33 | 84 | 988.4 |
| 20260505210222 | 57 | 68 | 1.0 | 1.0 | 0.00 | 0.33 | 0.33 | 83 | 988.4 |
| 20260505210122 | 57 | 45 | 1.0 | 1.0 | 0.00 | 0.33 | 0.33 | 84 | 988.6 |
| 20260505210022 | 57 | 73 | 0.0 | 1.0 | 0.00 | 0.33 | 0.33 | 83 | 988.5 |
| 20260505205922 | 57 | 304 | 0.0 | 1.0 | 0.00 | 0.33 | 0.33 | 83 | 988.5 |
| 20260505205822 | 57 | 274 | 0.0 | 1.0 | 0.00 | 0.33 | 0.33 | 83 | 988.4 |
| 20260505205722 | 57 | 112 | 1.0 | 5.0 | 0.00 | 0.33 | 0.33 | 82 | 988.2 |
| 20260505205622 | 57 | 146 | 1.0 | 5.0 | 0.00 | 0.33 | 0.33 | 83 | 988.4 |
| 20260505205522 | 57 | 63 | 0.0 | 2.0 | 0.00 | 0.33 | 0.33 | 83 | 988.5 |
| 20260505205422 | 57 | 45 | 0.0 | 0.0 | 0.00 | 0.33 | 0.33 | 83 | 988.3 |
| 20260505205322 | 57 | 68 | 0.0 | 0.0 | 0.00 | 0.33 | 0.33 | 83 | 988.4 |
| 20260505205222 | 57 | 68 | 0.0 | 6.0 | 0.00 | 0.33 | 0.33 | 82 | 988.4 |
| 20260505205122 | 57 | 77 | 1.0 | 6.0 | 0.00 | 0.33 | 0.33 | 82 | 988.4 |
| 20260505205021 | 57 | 135 | 1.0 | 3.0 | 0.00 | 0.33 | 0.33 | 82 | 988.2 |
| 20260505204921 | 57 | 135 | 1.0 | 3.0 | 0.00 | 0.33 | 0.33 | 82 | 988.3 |
| 20260505204821 | 57 | 131 | 1.0 | 3.0 | 0.00 | 0.33 | 0.33 | 82 | 988.3 |
| 20260505204721 | 57 | 42 | 1.0 | 2.0 | 0.00 | 0.33 | 0.33 | 83 | 988.3 |
| 20260505204621 | 57 | 283 | 0.0 | 2.0 | 0.00 | 0.33 | 0.33 | 84 | 988.3 |
| 20260505204521 | 57 | 85 | 1.0 | 2.0 | 0.00 | 0.33 | 0.33 | 83 | 988.4 |
| 20260505204421 | 57 | 340 | 0.0 | 2.0 | 0.00 | 0.33 | 0.33 | 84 | 988.4 |
| 20260505204321 | 58 | 228 | 1.0 | 2.0 | 0.00 | 0.33 | 0.33 | 83 | 988.3 |
| 20260505204221 | 58 | 119 | 1.0 | 2.0 | 0.00 | 0.33 | 0.33 | 83 | 988.4 |
| 20260505204121 | 58 | 112 | 1.0 | 2.0 | 0.00 | 0.33 | 0.33 | 82 | 988.5 |
| 20260505204021 | 58 | 123 | 1.0 | 2.0 | 0.00 | 0.33 | 0.33 | 83 | 988.3 |
| 20260505203921 | 58 | 112 | 0.0 | 2.0 | 0.00 | 0.33 | 0.33 | 83 | 988.3 |
| 20260505203821 | 58 | 111 | 0.0 | 3.0 | 0.00 | 0.33 | 0.33 | 83 | 988.3 |
| 20260505203721 | 58 | 33 | 1.0 | 3.0 | 0.00 | 0.33 | 0.33 | 82 | 988.2 |
| 20260505203621 | 57 | 91 | 1.0 | 3.0 | 0.00 | 0.33 | 0.33 | 82 | 988.2 |
| 20260505203523 | 57 | 135 | 1.0 | 3.0 | 0.00 | 0.33 | 0.33 | 83 | 988.3 |
| 20260505203423 | 57 | 117 | 0.0 | 3.0 | 0.00 | 0.33 | 0.33 | 84 | 988.3 |
| 20260505203323 | 57 | 112 | 1.0 | 2.0 | 0.00 | 0.33 | 0.33 | 84 | 988.3 |
| 20260505203223 | 57 | 112 | 1.0 | 2.0 | 0.00 | 0.33 | 0.33 | 84 | 988.3 |
| 20260505203123 | 57 | 122 | 1.0 | 2.0 | 0.00 | 0.33 | 0.33 | 84 | 988.3 |
| 20260505203023 | 57 | 117 | 0.0 | 2.0 | 0.00 | 0.33 | 0.33 | 84 | 988.4 |
| 20260505202922 | 57 | 112 | 1.0 | 2.0 | 0.00 | 0.33 | 0.33 | 84 | 988.5 |
| 20260505202822 | 57 | 127 | 1.0 | 2.0 | 0.00 | 0.33 | 0.33 | 85 | 988.4 |
| 20260505202722 | 57 | 112 | 1.0 | 2.0 | 0.00 | 0.33 | 0.33 | 85 | 988.4 |
| 20260505202622 | 57 | 202 | 0.0 | 2.0 | 0.00 | 0.33 | 0.33 | 85 | 988.4 |
| 20260505202522 | 57 | 15 | 1.0 | 1.0 | 0.00 | 0.33 | 0.33 | 84 | 988.5 |
| 20260505202422 | 57 | 126 | 1.0 | 5.0 | 0.00 | 0.33 | 0.33 | 85 | 988.4 |
| 20260505202322 | 57 | 112 | 0.0 | 2.0 | 0.00 | 0.33 | 0.33 | 85 | 988.5 |
| 20260505202222 | 57 | 112 | 1.0 | 2.0 | 0.00 | 0.33 | 0.33 | 85 | 988.4 |
| 20260505202122 | 57 | 112 | 1.0 | 1.0 | 0.00 | 0.33 | 0.33 | 85 | 988.4 |
| 20260505202022 | 57 | 112 | 0.0 | 2.0 | 0.00 | 0.33 | 0.33 | 85 | 988.3 |
| 20260505201922 | 57 | 122 | 0.0 | 2.0 | 0.00 | 0.33 | 0.33 | 85 | 988.4 |
| 20260505201822 | 57 | 135 | 0.0 | 0.0 | 0.00 | 0.33 | 0.33 | 85 | 988.2 |
| 20260505201722 | 57 | 135 | 0.0 | 0.0 | 0.00 | 0.33 | 0.33 | 84 | 988.4 |
| 20260505201622 | 57 | 129 | 0.0 | 1.0 | 0.00 | 0.33 | 0.33 | 84 | 988.3 |
| 20260505201522 | 57 | 112 | 0.0 | 1.0 | 0.00 | 0.33 | 0.33 | 84 | 988.3 |
| 20260505201422 | 58 | 155 | 0.0 | 1.0 | 0.00 | 0.33 | 0.33 | 84 | 988.4 |
| 20260505201322 | 58 | 59 | 0.0 | 1.0 | 0.00 | 0.33 | 0.33 | 84 | 988.4 |
| 20260505201222 | 58 | 103 | 0.0 | 1.0 | 0.00 | 0.33 | 0.33 | 84 | 988.4 |
| 20260505201122 | 58 | 110 | 0.0 | 1.0 | 0.00 | 0.33 | 0.33 | 84 | 988.5 |
| 20260505201022 | 58 | 111 | 0.0 | 2.0 | 0.00 | 0.33 | 0.33 | 84 | 988.3 |
| 20260505200922 | 58 | 123 | 0.0 | 2.0 | 0.00 | 0.33 | 0.33 | 84 | 988.4 |
| 20260505200822 | 58 | 135 | 0.0 | 2.0 | 0.00 | 0.33 | 0.33 | 84 | 988.6 |
| 20260505200722 | 58 | 46 | 0.0 | 2.0 | 0.00 | 0.33 | 0.33 | 84 | 988.5 |
| 20260505200622 | 58 | 0 | 0.0 | 0.0 | 0.00 | 0.33 | 0.33 | 85 | 988.3 |
| 20260505200522 | 58 | 346 | 0.0 | 0.0 | 0.00 | 0.33 | 0.33 | 84 | 988.3 |
| 20260505200422 | 58 | 95 | 0.0 | 0.0 | 0.00 | 0.33 | 0.33 | 83 | 988.5 |
| 20260505200322 | 58 | 158 | 0.0 | 1.0 | 0.00 | 0.33 | 0.33 | 83 | 988.5 |
| 20260505200222 | 58 | 126 | 1.0 | 2.0 | 0.00 | 0.33 | 0.33 | 83 | 988.5 |
| 20260505200121 | 58 | 149 | 1.0 | 2.0 | 0.00 | 0.33 | 0.33 | 83 | 988.5 |
| 20260505200021 | 58 | 139 | 0.0 | 3.0 | 0.00 | 0.33 | 0.33 | 83 | 988.4 |
| 20260505195921 | 58 | 135 | 1.0 | 3.0 | 0.00 | 0.33 | 0.33 | 83 | 988.5 |
| 20260505195821 | 58 | 124 | 1.0 | 2.0 | 0.00 | 0.33 | 0.33 | 83 | 988.5 |
| 20260505195721 | 58 | 112 | 0.0 | 2.0 | 0.00 | 0.33 | 0.33 | 83 | 988.4 |
| 20260505195621 | 58 | 104 | 1.0 | 1.0 | 0.00 | 0.33 | 0.33 | 83 | 988.4 |
| 20260505195521 | 58 | 135 | 1.0 | 3.0 | 0.00 | 0.33 | 0.33 | 83 | 988.6 |
| 20260505195421 | 58 | 120 | 0.0 | 3.0 | 0.00 | 0.33 | 0.33 | 84 | 988.4 |
| 20260505195321 | 58 | 111 | 1.0 | 3.0 | 0.00 | 0.33 | 0.33 | 83 | 988.5 |
| 20260505195221 | 58 | 344 | 1.0 | 3.0 | 0.00 | 0.33 | 0.33 | 83 | 988.5 |
| 20260505195121 | 58 | 12 | 1.0 | 3.0 | 0.00 | 0.33 | 0.33 | 83 | 988.4 |
| 20260505195021 | 58 | 112 | 0.0 | 2.0 | 0.00 | 0.33 | 0.33 | 84 | 988.4 |
| 20260505194921 | 58 | 112 | 1.0 | 2.0 | 0.00 | 0.33 | 0.33 | 84 | 988.3 |
| 20260505194821 | 58 | 157 | 1.0 | 2.0 | 0.00 | 0.33 | 0.33 | 83 | 988.2 |
| 20260505194721 | 58 | 315 | 0.0 | 1.0 | 0.00 | 0.33 | 0.33 | 83 | 988.2 |
| 20260505194621 | 58 | 134 | 1.0 | 2.0 | 0.00 | 0.33 | 0.33 | 83 | 988.3 |
| 20260505194523 | 58 | 93 | 1.0 | 2.0 | 0.00 | 0.33 | 0.33 | 83 | 988.3 |
| 20260505194423 | 58 | 277 | 1.0 | 3.0 | 0.00 | 0.33 | 0.33 | 83 | 988.2 |
| 20260505194323 | 58 | 101 | 1.0 | 6.0 | 0.00 | 0.33 | 0.33 | 83 | 988.2 |
| 20260505194223 | 58 | 135 | 1.0 | 6.0 | 0.00 | 0.33 | 0.33 | 83 | 988.2 |
| 20260505194123 | 58 | 98 | 1.0 | 3.0 | 0.00 | 0.33 | 0.33 | 84 | 988.2 |
| 20260505194023 | 58 | 115 | 0.0 | 2.0 | 0.00 | 0.33 | 0.33 | 83 | 988.2 |
| 20260505193922 | 58 | 125 | 0.0 | 2.0 | 0.00 | 0.33 | 0.33 | 83 | 988.2 |
| 20260505193822 | 58 | 29 | 0.0 | 1.0 | 0.00 | 0.33 | 0.33 | 83 | 988.3 |
| 20260505193722 | 58 | 70 | 0.0 | 2.0 | 0.00 | 0.33 | 0.33 | 83 | 988.2 |
| 20260505193622 | 58 | 173 | 1.0 | 3.0 | 0.00 | 0.33 | 0.33 | 82 | 988.3 |
| 20260505193522 | 58 | 135 | 1.0 | 2.0 | 0.00 | 0.33 | 0.33 | 83 | 988.0 |
| 20260505193422 | 58 | 119 | 1.0 | 2.0 | 0.00 | 0.33 | 0.33 | 83 | 988.1 |
| 20260505193322 | 58 | 127 | 1.0 | 1.0 | 0.00 | 0.33 | 0.33 | 83 | 988.1 |
| 20260505193222 | 58 | 287 | 1.0 | 7.0 | 0.00 | 0.33 | 0.33 | 83 | 988.1 |
| 20260505193122 | 58 | 135 | 1.0 | 2.0 | 0.00 | 0.33 | 0.33 | 84 | 988.1 |
| 20260505193022 | 58 | 119 | 1.0 | 2.0 | 0.00 | 0.33 | 0.33 | 84 | 988.2 |
| 20260505192922 | 58 | 112 | 0.0 | 2.0 | 0.00 | 0.33 | 0.33 | 84 | 988.3 |
| 20260505192822 | 58 | 113 | 1.0 | 2.0 | 0.00 | 0.33 | 0.33 | 84 | 988.3 |
| 20260505192722 | 58 | 99 | 1.0 | 2.0 | 0.00 | 0.33 | 0.33 | 83 | 988.2 |
| 20260505192622 | 58 | 96 | 0.0 | 1.0 | 0.00 | 0.33 | 0.33 | 83 | 988.1 |
| 20260505192522 | 58 | 106 | 1.0 | 3.0 | 0.00 | 0.33 | 0.33 | 83 | 988.2 |
| 20260505192422 | 58 | 117 | 1.0 | 3.0 | 0.00 | 0.33 | 0.33 | 83 | 988.2 |
| 20260505192322 | 58 | 135 | 1.0 | 3.0 | 0.00 | 0.33 | 0.33 | 83 | 988.2 |
| 20260505192222 | 58 | 135 | 1.0 | 3.0 | 0.00 | 0.33 | 0.33 | 83 | 988.2 |
| 20260505192122 | 58 | 120 | 1.0 | 3.0 | 0.00 | 0.33 | 0.33 | 83 | 988.1 |
| 20260505192022 | 58 | 121 | 1.0 | 5.0 | 0.00 | 0.33 | 0.33 | 83 | 988.1 |
| 20260505191922 | 58 | 103 | 1.0 | 5.0 | 0.00 | 0.33 | 0.33 | 84 | 988.1 |
| 20260505191822 | 58 | 135 | 1.0 | 2.0 | 0.00 | 0.33 | 0.33 | 84 | 988.2 |
| 20260505191722 | 58 | 116 | 1.0 | 2.0 | 0.00 | 0.33 | 0.33 | 83 | 988.1 |
| 20260505191621 | 58 | 115 | 1.0 | 2.0 | 0.00 | 0.33 | 0.33 | 83 | 988.1 |
| 20260505191521 | 58 | 135 | 1.0 | 2.0 | 0.00 | 0.33 | 0.33 | 83 | 988.1 |
| 20260505191421 | 57 | 135 | 1.0 | 2.0 | 0.00 | 0.33 | 0.33 | 83 | 988.0 |
| 20260505191321 | 57 | 136 | 1.0 | 1.0 | 0.00 | 0.33 | 0.33 | 84 | 988.2 |
| 20260505191221 | 57 | 102 | 1.0 | 3.0 | 0.00 | 0.33 | 0.33 | 84 | 988.2 |
| 20260505191121 | 57 | 84 | 1.0 | 3.0 | 0.00 | 0.33 | 0.33 | 85 | 988.2 |
| 20260505191021 | 57 | 112 | 0.0 | 1.0 | 0.00 | 0.33 | 0.33 | 85 | 988.3 |
| 20260505190921 | 57 | 114 | 0.0 | 2.0 | 0.00 | 0.33 | 0.33 | 84 | 988.3 |
| 20260505190821 | 57 | 127 | 0.0 | 2.0 | 0.00 | 0.33 | 0.33 | 85 | 988.2 |
| 20260505190721 | 57 | 112 | 0.0 | 0.0 | 0.00 | 0.33 | 0.33 | 84 | 988.2 |
| 20260505190621 | 57 | 112 | 1.0 | 5.0 | 0.00 | 0.33 | 0.33 | 84 | 988.2 |
| 20260505190521 | 57 | 139 | 1.0 | 5.0 | 0.00 | 0.33 | 0.33 | 84 | 988.2 |
| 20260505190421 | 57 | 254 | 0.0 | 1.0 | 0.00 | 0.33 | 0.33 | 85 | 988.2 |
| 20260505190321 | 57 | 261 | 0.0 | 2.0 | 0.00 | 0.33 | 0.33 | 85 | 988.3 |
| 20260505190221 | 57 | 121 | 0.0 | 2.0 | 0.00 | 0.33 | 0.33 | 85 | 988.1 |
| 20260505190123 | 57 | 112 | 0.0 | 1.0 | 0.00 | 0.33 | 0.33 | 85 | 988.2 |
| 20260505190023 | 57 | 112 | 0.0 | 1.0 | 0.00 | 0.33 | 0.33 | 85 | 988.3 |
| 20260505185923 | 57 | 112 | 0.0 | 2.0 | 0.00 | 0.33 | 0.33 | 84 | 988.1 |
| 20260505185823 | 57 | 122 | 1.0 | 2.0 | 0.00 | 0.33 | 0.33 | 84 | 988.0 |
| 20260505185723 | 57 | 123 | 0.0 | 2.0 | 0.00 | 0.33 | 0.33 | 85 | 988.2 |
| 20260505185623 | 57 | 127 | 1.0 | 2.0 | 0.00 | 0.33 | 0.33 | 85 | 988.1 |
| 20260505185522 | 57 | 112 | 1.0 | 2.0 | 0.00 | 0.33 | 0.33 | 85 | 988.2 |
| 20260505185422 | 57 | 142 | 0.0 | 2.0 | 0.00 | 0.33 | 0.33 | 85 | 988.1 |
| 20260505185322 | 57 | 139 | 1.0 | 2.0 | 0.00 | 0.33 | 0.33 | 85 | 988.0 |
| 20260505185222 | 57 | 113 | 1.0 | 2.0 | 0.00 | 0.33 | 0.33 | 85 | 988.0 |
| 20260505185122 | 57 | 103 | 0.0 | 2.0 | 0.00 | 0.33 | 0.33 | 84 | 988.1 |
| 20260505185022 | 57 | 90 | 0.0 | 0.0 | 0.00 | 0.33 | 0.33 | 85 | 988.1 |
| 20260505184922 | 57 | 90 | 0.0 | 1.0 | 0.00 | 0.33 | 0.33 | 84 | 988.1 |
| 20260505184822 | 57 | 90 | 0.0 | 1.0 | 0.00 | 0.33 | 0.33 | 85 | 988.0 |
| 20260505184722 | 57 | 90 | 0.0 | 1.0 | 0.00 | 0.33 | 0.33 | 85 | 988.1 |
| 20260505184622 | 57 | 102 | 0.0 | 1.0 | 0.00 | 0.33 | 0.33 | 85 | 988.0 |
| 20260505184522 | 57 | 112 | 0.0 | 2.0 | 0.00 | 0.33 | 0.33 | 84 | 988.0 |
| 20260505184422 | 57 | 112 | 1.0 | 3.0 | 0.00 | 0.33 | 0.33 | 84 | 988.2 |
| 20260505184322 | 57 | 127 | 1.0 | 3.0 | 0.00 | 0.33 | 0.33 | 84 | 988.1 |
| 20260505184222 | 57 | 142 | 1.0 | 2.0 | 0.00 | 0.33 | 0.33 | 85 | 988.0 |
| 20260505184122 | 58 | 117 | 0.0 | 2.0 | 0.00 | 0.33 | 0.33 | 84 | 988.0 |
| 20260505184022 | 58 | 135 | 1.0 | 2.0 | 0.00 | 0.33 | 0.33 | 84 | 988.1 |
| 20260505183922 | 58 | 135 | 2.0 | 2.0 | 0.00 | 0.33 | 0.33 | 84 | 987.9 |
| 20260505183822 | 58 | 135 | 1.0 | 2.0 | 0.00 | 0.33 | 0.33 | 85 | 988.1 |
| 20260505183722 | 58 | 135 | 1.0 | 2.0 | 0.00 | 0.33 | 0.33 | 84 | 988.1 |
| 20260505183622 | 58 | 135 | 1.0 | 3.0 | 0.00 | 0.33 | 0.33 | 85 | 988.0 |
| 20260505183522 | 58 | 135 | 1.0 | 3.0 | 0.00 | 0.33 | 0.33 | 85 | 988.0 |
| 20260505183422 | 58 | 100 | 1.0 | 2.0 | 0.00 | 0.33 | 0.33 | 85 | 988.1 |
| 20260505183322 | 58 | 131 | 1.0 | 2.0 | 0.00 | 0.33 | 0.33 | 85 | 988.2 |
| 20260505183222 | 58 | 156 | 1.0 | 3.0 | 0.00 | 0.33 | 0.33 | 85 | 988.0 |
| 20260505183121 | 58 | 135 | 1.0 | 3.0 | 0.00 | 0.33 | 0.33 | 85 | 988.1 |
| 20260505183021 | 58 | 117 | 1.0 | 3.0 | 0.00 | 0.33 | 0.33 | 85 | 988.1 |
| 20260505182921 | 58 | 118 | 1.0 | 3.0 | 0.00 | 0.33 | 0.33 | 86 | 988.1 |
| 20260505182821 | 58 | 135 | 0.0 | 1.0 | 0.00 | 0.33 | 0.33 | 85 | 988.0 |
| 20260505182721 | 58 | 120 | 1.0 | 1.0 | 0.00 | 0.33 | 0.33 | 86 | 988.1 |
| 20260505182621 | 58 | 133 | 1.0 | 2.0 | 0.00 | 0.33 | 0.33 | 85 | 988.0 |
| 20260505182521 | 58 | 120 | 1.0 | 2.0 | 0.00 | 0.33 | 0.33 | 86 | 988.0 |
| 20260505182421 | 58 | 132 | 1.0 | 2.0 | 0.00 | 0.33 | 0.33 | 86 | 988.1 |
| 20260505182321 | 58 | 105 | 1.0 | 2.0 | 0.00 | 0.33 | 0.33 | 86 | 988.1 |
| 20260505182221 | 58 | 90 | 1.0 | 2.0 | 0.00 | 0.33 | 0.33 | 86 | 988.1 |
| 20260505182121 | 58 | 150 | 1.0 | 2.0 | 0.00 | 0.33 | 0.33 | 86 | 988.1 |
| 20260505182021 | 58 | 147 | 1.0 | 2.0 | 0.01 | 0.33 | 0.33 | 87 | 988.0 |
| 20260505181921 | 58 | 150 | 1.0 | 1.0 | 0.01 | 0.33 | 0.33 | 87 | 987.9 |
| 20260505181821 | 58 | 134 | 1.0 | 1.0 | 0.01 | 0.33 | 0.33 | 87 | 988.0 |
| 20260505181721 | 58 | 114 | 0.0 | 1.0 | 0.01 | 0.33 | 0.33 | 87 | 988.2 |
| 20260505181621 | 58 | 112 | 0.0 | 0.0 | 0.01 | 0.33 | 0.33 | 87 | 988.0 |
| 20260505181523 | 58 | 112 | 0.0 | 0.0 | 0.01 | 0.33 | 0.33 | 88 | 988.2 |
| 20260505181423 | 58 | 113 | 0.0 | 1.0 | 0.01 | 0.33 | 0.33 | 88 | 988.1 |
| 20260505181323 | 58 | 133 | 0.0 | 1.0 | 0.01 | 0.33 | 0.33 | 88 | 988.1 |
| 20260505181223 | 58 | 135 | 0.0 | 2.0 | 0.02 | 0.33 | 0.33 | 88 | 988.1 |
| 20260505181123 | 58 | 111 | 0.0 | 2.0 | 0.02 | 0.33 | 0.33 | 88 | 988.0 |
| 20260505181023 | 58 | 90 | 0.0 | 1.0 | 0.04 | 0.33 | 0.33 | 89 | 988.1 |
| 20260505180922 | 58 | 90 | 0.0 | 1.0 | 0.04 | 0.33 | 0.33 | 90 | 988.1 |
| 20260505180822 | 58 | 90 | 0.0 | 0.0 | 0.04 | 0.33 | 0.33 | 89 | 988.1 |
| 20260505180722 | 58 | 90 | 0.0 | 1.0 | 0.04 | 0.33 | 0.33 | 89 | 988.1 |
| 20260505180622 | 58 | 91 | 1.0 | 2.0 | 0.05 | 0.33 | 0.33 | 89 | 988.1 |
| 20260505180522 | 58 | 197 | 0.0 | 2.0 | 0.05 | 0.33 | 0.33 | 90 | 988.1 |
| 20260505180422 | 58 | 188 | 0.0 | 1.0 | 0.05 | 0.33 | 0.33 | 90 | 988.0 |
| 20260505180322 | 58 | 90 | 0.0 | 0.0 | 0.05 | 0.33 | 0.33 | 90 | 988.0 |
| 20260505180222 | 58 | 90 | 0.0 | 0.0 | 0.05 | 0.33 | 0.33 | 90 | 988.0 |
| 20260505180122 | 58 | 90 | 0.0 | 0.0 | 0.06 | 0.33 | 0.33 | 90 | 988.0 |
| 20260505180022 | 58 | 90 | 0.0 | 1.0 | 0.08 | 0.33 | 0.33 | 90 | 988.1 |
| 20260505175922 | 58 | 100 | 0.0 | 1.0 | 0.08 | 0.33 | 0.33 | 90 | 988.1 |
| 20260505175822 | 58 | 112 | 0.0 | 1.0 | 0.13 | 0.33 | 0.33 | 89 | 988.0 |
| 20260505175722 | 58 | 112 | 0.0 | 2.0 | 0.14 | 0.33 | 0.33 | 90 | 988.1 |
| 20260505175622 | 58 | 131 | 1.0 | 2.0 | 0.17 | 0.33 | 0.33 | 89 | 987.9 |
| 20260505175522 | 58 | 135 | 1.0 | 3.0 | 0.18 | 0.33 | 0.33 | 90 | 987.9 |
| 20260505175422 | 58 | 135 | 0.0 | 3.0 | 0.20 | 0.33 | 0.33 | 90 | 988.1 |
| 20260505175322 | 58 | 120 | 0.0 | 1.0 | 0.20 | 0.33 | 0.33 | 90 | 988.0 |
| 20260505175222 | 58 | 118 | 0.0 | 1.0 | 0.21 | 0.33 | 0.33 | 90 | 988.2 |
| 20260505175122 | 58 | 135 | 0.0 | 0.0 | 0.22 | 0.33 | 0.33 | 90 | 988.0 |
| 20260505175022 | 58 | 135 | 0.0 | 0.0 | 0.24 | 0.33 | 0.33 | 91 | 988.1 |
| 20260505174922 | 58 | 135 | 0.0 | 0.0 | 0.24 | 0.33 | 0.33 | 91 | 988.2 |
| 20260505174822 | 58 | 135 | 0.0 | 0.0 | 0.24 | 0.33 | 0.33 | 91 | 988.1 |
| 20260505174722 | 58 | 135 | 0.0 | 0.0 | 0.25 | 0.33 | 0.33 | 91 | 988.1 |
| 20260505174622 | 58 | 135 | 0.0 | 0.0 | 0.25 | 0.33 | 0.33 | 91 | 988.1 |
| 20260505174522 | 57 | 135 | 0.0 | 0.0 | 0.25 | 0.33 | 0.33 | 90 | 988.1 |
| 20260505174422 | 57 | 135 | 0.0 | 0.0 | 0.25 | 0.33 | 0.33 | 90 | 988.1 |
| 20260505174322 | 57 | 135 | 0.0 | 0.0 | 0.25 | 0.33 | 0.33 | 90 | 988.1 |
| 20260505174221 | 57 | 135 | 0.0 | 1.0 | 0.26 | 0.33 | 0.33 | 90 | 988.0 |
| 20260505174121 | 57 | 136 | 0.0 | 1.0 | 0.26 | 0.33 | 0.33 | 90 | 988.1 |
| 20260505174021 | 57 | 245 | 0.0 | 1.0 | 0.26 | 0.33 | 0.33 | 90 | 988.3 |
| 20260505173921 | 57 | 239 | 0.0 | 0.0 | 0.27 | 0.33 | 0.33 | 90 | 988.1 |
| 20260505173821 | 58 | 280 | 0.0 | 0.0 | 0.27 | 0.33 | 0.33 | 90 | 988.1 |
| 20260505173721 | 58 | 292 | 0.0 | 0.0 | 0.27 | 0.33 | 0.33 | 90 | 988.2 |
| 20260505173621 | 58 | 292 | 0.0 | 0.0 | 0.27 | 0.33 | 0.33 | 91 | 988.2 |
| 20260505173521 | 58 | 292 | 0.0 | 0.0 | 0.27 | 0.33 | 0.33 | 91 | 988.2 |
| 20260505173421 | 58 | 242 | 0.0 | 0.0 | 0.27 | 0.33 | 0.33 | 91 | 988.1 |
| 20260505173321 | 58 | 184 | 0.0 | 0.0 | 0.27 | 0.33 | 0.33 | 90 | 988.2 |
| 20260505173221 | 58 | 247 | 0.0 | 0.0 | 0.27 | 0.33 | 0.33 | 90 | 988.1 |
| 20260505173121 | 58 | 248 | 0.0 | 0.0 | 0.27 | 0.33 | 0.33 | 90 | 988.1 |
| 20260505173021 | 58 | 259 | 0.0 | 0.0 | 0.28 | 0.33 | 0.33 | 91 | 988.0 |
| 20260505172921 | 58 | 270 | 0.0 | 0.0 | 0.28 | 0.33 | 0.33 | 90 | 988.0 |
| 20260505172823 | 58 | 270 | 0.0 | 0.0 | 0.28 | 0.33 | 0.33 | 90 | 988.0 |
| 20260505172723 | 58 | 270 | 0.0 | 0.0 | 0.30 | 0.33 | 0.33 | 90 | 988.1 |
| 20260505172623 | 58 | 270 | 0.0 | 0.0 | 0.30 | 0.33 | 0.33 | 90 | 988.0 |
| 20260505172523 | 58 | 270 | 0.0 | 0.0 | 0.30 | 0.33 | 0.33 | 90 | 988.1 |
| 20260505172423 | 58 | 270 | 0.0 | 0.0 | 0.30 | 0.33 | 0.33 | 90 | 988.0 |
| 20260505172323 | 58 | 270 | 0.0 | 0.0 | 0.30 | 0.33 | 0.33 | 90 | 988.1 |
| 20260505172223 | 58 | 270 | 0.0 | 0.0 | 0.30 | 0.33 | 0.33 | 90 | 988.1 |
| 20260505172123 | 58 | 273 | 0.0 | 0.0 | 0.30 | 0.33 | 0.33 | 90 | 987.9 |
| 20260505172022 | 58 | 292 | 0.0 | 0.0 | 0.30 | 0.32 | 0.32 | 90 | 987.8 |
| 20260505171922 | 58 | 285 | 0.0 | 0.0 | 0.30 | 0.32 | 0.32 | 90 | 987.9 |
| 20260505171822 | 58 | 270 | 0.0 | 0.0 | 0.30 | 0.32 | 0.32 | 89 | 987.9 |
| 20260505171722 | 58 | 268 | 0.0 | 1.0 | 0.30 | 0.32 | 0.32 | 89 | 988.0 |
| 20260505171622 | 58 | 256 | 1.0 | 2.0 | 0.30 | 0.32 | 0.32 | 89 | 987.9 |
| 20260505171522 | 58 | 263 | 1.0 | 3.0 | 0.30 | 0.32 | 0.32 | 89 | 988.0 |
| 20260505171422 | 58 | 279 | 0.0 | 3.0 | 0.30 | 0.32 | 0.32 | 89 | 988.0 |
| 20260505171322 | 58 | 299 | 0.0 | 1.0 | 0.30 | 0.32 | 0.32 | 88 | 988.0 |
| 20260505171222 | 58 | 335 | 0.0 | 1.0 | 0.28 | 0.31 | 0.31 | 88 | 988.0 |
| 20260505171122 | 58 | 293 | 0.0 | 1.0 | 0.28 | 0.31 | 0.31 | 88 | 987.9 |
| 20260505171022 | 58 | 292 | 1.0 | 1.0 | 0.27 | 0.30 | 0.30 | 88 | 987.9 |
| 20260505170922 | 58 | 265 | 1.0 | 5.0 | 0.27 | 0.30 | 0.30 | 87 | 988.0 |
| 20260505170822 | 58 | 249 | 2.0 | 5.0 | 0.27 | 0.30 | 0.30 | 86 | 987.9 |
| 20260505170722 | 58 | 269 | 1.0 | 5.0 | 0.27 | 0.30 | 0.30 | 86 | 987.9 |
| 20260505170622 | 58 | 286 | 2.0 | 8.0 | 0.26 | 0.28 | 0.28 | 86 | 987.9 |
| 20260505170522 | 58 | 280 | 1.0 | 8.0 | 0.26 | 0.28 | 0.28 | 87 | 988.0 |
| 20260505170422 | 58 | 268 | 1.0 | 3.0 | 0.26 | 0.28 | 0.28 | 86 | 987.9 |
| 20260505170322 | 58 | 248 | 1.0 | 3.0 | 0.26 | 0.28 | 0.28 | 88 | 987.9 |
| 20260505170222 | 59 | 217 | 1.0 | 3.0 | 0.26 | 0.28 | 0.28 | 88 | 987.9 |
| 20260505170122 | 59 | 286 | 1.0 | 2.0 | 0.25 | 0.27 | 0.27 | 87 | 987.9 |
| 20260505170022 | 59 | 270 | 2.0 | 2.0 | 0.22 | 0.25 | 0.25 | 88 | 988.0 |
| 20260505165922 | 59 | 270 | 1.0 | 2.0 | 0.22 | 0.25 | 0.25 | 89 | 988.0 |
| 20260505165821 | 60 | 39 | 0.0 | 1.0 | 0.18 | 0.20 | 0.20 | 90 | 987.8 |
| 20260505165721 | 60 | 275 | 0.0 | 0.0 | 0.17 | 0.19 | 0.19 | 90 | 987.8 |
| 20260505165621 | 60 | 270 | 0.0 | 1.0 | 0.14 | 0.17 | 0.17 | 89 | 987.8 |
| 20260505165521 | 60 | 270 | 0.0 | 1.0 | 0.13 | 0.15 | 0.15 | 89 | 987.8 |
| 20260505165421 | 60 | 270 | 1.0 | 1.0 | 0.11 | 0.13 | 0.13 | 89 | 987.6 |
| 20260505165321 | 60 | 114 | 0.0 | 1.0 | 0.11 | 0.13 | 0.13 | 89 | 987.7 |
| 20260505165221 | 60 | 112 | 0.0 | 0.0 | 0.09 | 0.12 | 0.12 | 88 | 987.5 |
| 20260505165121 | 60 | 112 | 0.0 | 0.0 | 0.08 | 0.11 | 0.11 | 88 | 987.5 |
| 20260505165021 | 60 | 127 | 0.0 | 0.0 | 0.07 | 0.09 | 0.09 | 88 | 987.6 |
| 20260505164921 | 60 | 135 | 0.0 | 0.0 | 0.07 | 0.09 | 0.09 | 87 | 987.7 |
| 20260505164821 | 60 | 135 | 0.0 | 0.0 | 0.07 | 0.09 | 0.09 | 87 | 987.6 |
| 20260505164721 | 60 | 135 | 0.0 | 0.0 | 0.06 | 0.08 | 0.08 | 87 | 987.6 |
| 20260505164621 | 60 | 135 | 0.0 | 2.0 | 0.06 | 0.08 | 0.08 | 87 | 987.4 |
| 20260505164521 | 60 | 154 | 1.0 | 2.0 | 0.06 | 0.08 | 0.08 | 86 | 987.5 |
| 20260505164421 | 60 | 154 | 1.0 | 2.0 | 0.06 | 0.08 | 0.08 | 86 | 987.6 |
| 20260505164321 | 60 | 135 | 1.0 | 2.0 | 0.06 | 0.08 | 0.08 | 87 | 987.6 |
| 20260505164221 | 60 | 82 | 0.0 | 2.0 | 0.05 | 0.07 | 0.07 | 87 | 987.6 |